GEFSMW_500_meanwind_108.txt.gz
Wind_Speed
9 7 5 5 6 7 10 13 15 16 16 17 17 16 16 15 14 12 11 10 10 9 8 7 6 5 4 3 3 2 1 1 1 1 1 0 0 0 0 1 2 3 4
8 7 7 6 7 7 9 11 14 15 15 17 17 16 16 16 13 12 11 11 11 10 9 8 7 6 4 4 3 2 2 1 1 1 1 1 1 1 1 1 1 1 2
8 7 7 6 6 6 8 11 13 15 15 16 16 16 16 15 14 12 11 12 11 11 10 9 8 7 5 4 4 3 2 2 1 0 0 1 1 1 1 1 1 1 1
8 7 6 5 5 5 6 10 12 13 15 15 15 15 15 15 15 13 13 13 12 12 12 10 9 8 7 6 5 5 4 3 2 2 2 2 2 2 2 2 2 2 3
8 6 6 5 5 5 6 9 11 13 14 14 14 14 15 15 15 14 14 13 13 13 13 12 11 9 8 7 6 6 5 5 4 4 4 4 4 4 4 4 4 4 5
7 6 5 5 5 5 6 8 11 13 14 15 15 14 15 16 15 14 14 13 13 13 14 13 12 11 10 9 8 8 8 7 6 6 6 6 6 6 6 6 7 7 7
7 6 5 5 5 6 6 7 11 14 14 15 15 14 15 16 16 15 14 14 14 14 15 15 13 13 12 11 11 10 10 10 9 9 9 9 9 9 9 10 10 10 10
8 6 5 5 5 5 6 7 10 13 14 15 16 15 16 17 16 16 15 15 15 15 16 16 15 15 14 14 13 13 13 13 12 12 12 12 12 12 13 13 13 13 13
7 6 6 6 6 5 5 7 8 10 13 14 15 16 16 16 17 16 16 16 16 16 16 16 17 16 16 16 16 16 16 16 16 16 15 15 16 16 16 16 17 17 17
8 6 6 6 6 5 5 5 6 8 11 14 15 16 16 16 17 17 17 18 17 17 17 18 18 18 19 18 19 19 19 19 19 19 19 19 19 20 20 20 20 20 21
8 7 6 6 6 5 5 5 6 8 10 13 15 16 16 16 16 16 17 18 18 19 19 19 20 20 21 21 21 21 21 22 22 23 23 23 23 23 24 24 24 24 24
9 7 7 7 7 6 6 6 7 8 10 12 14 16 17 17 17 17 18 19 19 20 21 21 22 22 22 23 23 24 24 25 25 26 26 27 27 27 28 28 28 28 29
10 8 8 8 8 8 7 7 7 8 9 11 14 16 17 17 18 18 19 20 20 21 22 23 23 23 23 24 26 26 27 27 28 28 29 30 30 30 31 31 32 32 32
11 10 9 8 8 8 8 7 7 8 9 10 11 13 15 16 18 18 19 20 21 22 23 24 24 25 25 27 27 28 29 30 31 31 32 32 33 33 34 34 35 35 35
12 11 10 10 10 10 9 9 9 9 9 10 11 12 13 14 16 17 18 20 21 22 22 23 24 26 27 29 30 31 31 32 32 33 34 35 35 36 37 37 38 38 38
15 14 13 12 12 12 11 11 11 11 11 11 12 13 14 14 15 16 18 19 21 22 22 24 25 27 28 29 30 32 33 33 33 34 35 36 37 38 38 39 40 40 40
17 16 15 14 13 13 13 13 12 12 12 12 13 14 15 16 16 17 18 19 21 22 23 24 25 26 27 29 30 31 33 34 35 36 37 38 39 40 42 43 43 43 43
19 18 17 16 16 15 15 15 15 14 14 14 15 15 15 16 17 18 19 20 22 23 24 25 27 28 29 30 31 33 35 36 37 38 39 40 41 41 42 43 43 43 43
20 20 19 19 18 17 17 18 18 16 15 16 16 17 17 17 18 19 21 22 23 24 26 27 28 30 31 33 35 36 37 39 39 40 40 41 42 43 43 44 44 45 47
22 21 21 21 20 20 19 19 19 19 18 18 18 19 19 20 21 22 22 23 24 25 27 28 30 32 33 34 35 37 38 39 40 41 42 42 44 44 44 45 46 47 48
23 23 22 22 22 21 21 21 20 20 21 21 21 21 22 23 24 24 24 25 26 27 29 30 31 33 34 36 36 38 39 40 41 42 43 44 46 47 47 47 47 48 49
25 25 25 24 24 24 23 23 23 22 22 23 23 23 24 25 26 26 27 27 28 30 31 32 34 35 36 37 39 40 41 42 43 44 45 45 46 47 48 48 48 49 50
27 26 26 26 26 26 25 25 25 24 24 24 25 26 26 26 27 27 28 29 30 31 33 34 35 37 38 39 41 42 43 44 45 46 47 49 50 51 51 51 52 52 53
28 27 27 27 26 27 27 26 26 26 26 26 26 26 27 27 27 28 29 30 31 33 34 36 37 39 40 42 43 44 45 46 48 49 50 51 53 54 54 55 56 56 57
28 27 27 27 27 27 26 26 26 26 26 26 26 27 28 28 28 29 30 32 33 34 36 37 39 40 41 42 44 45 46 48 50 52 53 55 56 57 57 58 58 58 58
28 28 28 27 26 26 25 25 25 25 25 26 26 27 28 28 30 31 33 34 35 36 38 39 41 42 44 45 47 48 50 51 52 53 54 55 56 57 57 57 57 57 57

GEFSMW_500_meanwind_114.txt.gz
Wind_Speed
15 13 10 8 7 6 5 7 8 9 10 11 11 11 11 12 12 12 11 10 9 9 9 8 6 5 4 3 2 2 2 2 3 3 3 3 3 3 3 3 2 3 3
13 11 10 7 6 5 5 5 7 8 9 11 11 11 11 11 11 11 11 10 9 9 10 9 7 6 5 4 2 1 1 1 2 2 3 4 4 4 4 4 3 3 3
12 10 8 7 6 5 4 4 6 8 9 10 10 10 11 11 11 11 11 10 10 10 10 9 8 7 6 5 3 2 0 0 0 1 2 3 3 4 4 4 4 4 3
11 10 8 7 6 6 5 4 5 8 9 9 10 10 11 11 11 12 12 11 10 10 10 10 9 8 7 6 5 4 3 2 2 2 1 2 2 3 3 4 4 4 4
12 10 8 7 6 6 5 4 5 7 8 9 10 10 11 12 12 12 12 11 11 11 11 11 10 9 8 7 7 6 5 4 4 4 4 3 3 4 4 4 4 5 5
12 11 10 8 7 6 5 4 4 6 8 9 10 10 11 11 12 13 13 12 11 11 12 12 11 10 10 9 9 8 7 7 7 6 6 6 6 6 6 6 6 6 7
12 10 10 8 6 6 5 5 5 6 7 9 10 11 11 12 13 13 13 13 12 12 12 13 12 11 11 11 11 10 10 10 10 9 9 9 9 9 9 9 9 9 9
11 10 9 8 6 6 5 5 5 7 9 10 11 11 12 13 13 14 13 13 14 14 14 14 14 13 12 13 13 13 13 13 13 13 12 12 13 13 13 13 13 13 13
11 10 10 8 7 6 6 6 6 7 9 11 12 12 12 13 14 14 14 13 14 14 15 15 15 15 15 15 15 15 16 16 16 16 16 16 16 16 16 16 17 17 17
11 9 9 8 7 7 6 6 6 7 8 10 12 13 13 13 14 14 14 14 14 15 15 16 16 17 17 17 17 18 18 19 19 19 19 19 20 20 20 20 21 21 21
10 9 9 8 8 7 7 6 6 6 7 9 11 12 13 14 14 14 15 15 16 16 16 17 17 18 19 19 19 20 20 21 21 22 22 22 23 23 23 24 24 25 25
12 11 9 9 8 8 7 6 6 6 5 6 8 11 13 14 15 15 15 17 17 18 18 18 19 19 20 21 21 22 22 23 24 24 24 25 25 26 27 27 27 28 28
13 12 11 10 9 8 8 7 7 6 6 7 8 10 12 13 15 16 16 18 19 19 20 20 20 21 21 22 22 22 24 25 26 26 26 27 28 28 29 30 30 30 31
15 14 13 12 11 10 9 8 8 8 7 7 8 9 12 13 15 16 17 18 19 20 20 21 21 21 22 22 22 23 24 25 26 26 28 29 29 30 31 31 32 33 33
16 16 15 13 12 11 11 10 10 9 8 8 8 9 11 13 14 16 17 18 18 19 20 21 22 22 22 22 23 24 24 24 25 27 28 29 30 32 32 33 34 35 36
18 17 16 15 14 13 13 12 11 10 10 9 9 10 11 12 13 15 16 17 17 18 19 20 21 22 22 23 24 25 25 26 27 28 30 31 31 32 33 35 36 37 37
21 19 18 17 16 15 14 14 13 12 12 12 12 12 12 13 14 15 16 17 19 19 19 20 21 21 21 23 24 26 27 28 29 30 31 31 32 33 34 35 36 37 38
22 21 20 19 18 17 16 16 15 14 14 14 14 14 14 14 14 15 16 17 18 19 19 19 21 22 23 23 25 27 28 29 30 31 32 33 35 35 36 37 38 40 40
25 24 22 21 19 18 18 18 17 16 16 16 17 17 17 17 17 18 18 19 19 21 21 21 22 23 25 26 28 29 30 31 32 33 33 34 35 36 38 39 40 41 43
26 25 24 23 21 20 20 20 20 19 19 19 19 19 19 19 19 19 20 20 21 22 24 25 25 26 27 29 30 31 32 33 34 34 35 36 38 40 41 42 43 44 45
28 27 26 25 24 23 22 22 21 22 21 21 21 20 21 21 21 21 22 22 23 24 26 27 28 29 30 30 31 32 33 35 36 37 38 39 41 42 44 45 46 47 48
29 29 28 27 26 25 24 23 24 23 22 22 22 23 24 23 22 23 24 25 26 27 28 29 29 30 31 32 33 34 36 37 39 40 42 43 44 46 47 48 49 51 52
31 29 29 28 27 26 26 26 26 25 25 25 25 26 27 26 26 26 26 26 28 29 29 30 31 32 33 34 36 37 39 41 42 44 45 47 48 49 51 52 53 54 56
31 30 30 29 28 27 28 28 27 27 27 27 27 28 28 28 27 27 27 27 29 30 31 32 33 34 35 37 38 40 41 43 45 47 49 50 52 53 54 55 56 57 58
31 31 31 31 30 29 28 29 30 29 29 29 29 28 28 28 28 28 28 29 30 31 32 34 35 37 38 39 41 42 44 46 48 50 52 53 54 55 56 57 58 58 58
32 30 30 30 30 29 29 30 30 29 30 30 29 28 27 28 28 29 30 31 32 32 33 35 37 39 41 42 44 46 48 50 51 53 54 55 56 56 57 57 58 58 57

GEFSMW_500_meanwind_120.txt.gz
Wind_Speed
15 13 10 7 6 5 2 3 4 5 7 9 10 12 13 15 16 16 16 14 12 11 11 11 10 9 8 7 6 5 4 4 4 4 4 4 4 3 3 3 2 3 3
14 12 8 5 4 4 1 4 4 5 7 8 10 12 13 16 17 17 16 15 13 12 12 12 11 9 9 8 7 6 5 5 4 4 4 3 3 3 3 2 2 2 2
12 10 6 4 4 3 1 2 2 4 7 9 10 11 11 12 15 17 16 15 14 13 13 13 12 10 10 9 8 7 6 5 4 4 3 3 3 3 2 2 2 1 1
10 8 5 4 4 3 2 0 2 4 6 9 10 11 12 13 14 15 16 15 14 14 13 13 12 11 10 10 9 8 7 5 5 4 4 3 3 2 2 2 1 1 1
9 7 6 5 3 3 2 1 2 4 6 8 10 11 12 14 14 14 14 14 14 14 14 13 13 12 11 10 10 9 8 7 6 6 5 5 5 4 3 3 3 3 3
8 7 6 5 4 3 2 1 2 4 6 8 10 11 12 13 14 14 14 14 15 14 14 14 14 13 12 12 11 10 9 9 8 7 7 7 7 6 5 5 5 5 5
7 7 6 5 4 4 3 1 2 4 6 7 10 11 12 12 13 14 15 15 14 15 15 15 15 14 14 13 12 12 11 11 10 10 9 9 9 9 8 8 8 7 8
6 6 5 4 4 4 3 2 2 4 6 8 9 12 13 13 14 14 15 15 15 15 15 15 15 15 15 15 14 13 13 13 13 12 12 12 12 11 11 11 11 11 11
5 5 5 4 4 4 3 2 2 3 5 8 10 11 13 15 15 15 16 16 16 16 16 16 16 17 17 16 16 16 15 15 15 15 15 15 14 14 14 14 14 14 14
4 5 4 4 4 3 3 3 3 3 5 7 10 12 13 15 15 16 16 16 16 16 16 16 17 17 17 17 17 18 18 18 18 18 18 18 18 18 18 18 18 17 17
4 4 4 5 4 4 4 4 4 4 5 6 8 12 13 14 16 17 17 17 17 17 17 17 17 17 18 19 19 19 19 19 19 20 20 21 21 21 22 21 21 21 21
5 4 4 5 5 4 4 5 5 5 5 6 8 10 12 14 16 17 17 18 17 18 18 17 18 19 19 20 20 20 21 21 21 21 22 22 23 23 24 24 25 24 24
7 5 5 6 6 6 6 6 5 5 5 6 8 10 11 14 16 16 17 18 19 19 19 19 19 19 20 21 21 22 22 22 23 23 23 24 24 24 25 26 27 27 27
9 6 5 6 7 8 8 7 6 6 6 6 7 9 11 13 16 17 18 18 19 20 21 20 19 20 20 21 22 23 23 23 23 23 23 24 25 26 26 27 28 28 29
11 8 7 8 9 9 9 8 8 8 8 7 7 8 10 12 13 15 17 18 18 19 20 20 20 20 21 22 23 23 23 23 23 23 24 24 24 25 26 27 28 29 30
13 12 12 10 10 10 10 10 10 9 9 9 9 9 11 12 13 14 17 19 19 19 20 20 20 20 21 21 21 22 22 22 23 24 25 25 27 28 28 29 30 31 32
15 14 14 13 13 12 12 11 11 10 10 10 10 10 10 12 13 13 15 17 18 18 19 20 20 20 21 21 21 22 23 24 25 26 27 27 28 29 31 32 32 33 34
17 16 16 16 15 14 13 13 12 11 11 11 11 12 12 12 13 14 15 17 19 19 19 20 20 21 21 21 22 23 24 26 26 27 29 29 30 31 32 33 34 35 36
20 19 19 18 17 16 15 15 14 13 13 13 13 13 14 14 15 15 16 16 16 18 19 19 21 22 22 22 23 24 25 26 28 29 30 30 32 33 34 34 36 37 39
23 22 21 21 19 18 18 18 17 17 16 16 16 16 16 16 16 17 17 17 17 17 19 20 21 22 23 24 25 26 27 28 29 30 31 32 33 35 36 37 39 40 42
26 25 24 23 21 22 21 20 19 19 18 18 18 18 18 18 18 19 19 19 20 20 21 23 24 25 25 26 26 27 28 29 31 32 33 35 36 38 39 40 42 43 45
28 27 25 23 23 22 21 21 21 21 20 20 20 20 20 20 20 21 21 21 22 24 24 26 26 26 26 28 29 29 30 31 33 34 36 37 39 41 42 44 45 47 49
28 27 25 25 24 24 23 23 22 21 21 21 20 20 21 22 21 22 22 23 24 25 25 26 26 28 29 29 30 31 33 34 36 37 39 41 43 44 46 48 49 51 52
29 29 27 26 26 26 25 24 22 21 21 21 21 22 22 23 22 23 23 23 24 25 26 27 28 29 30 31 32 34 35 37 38 40 42 44 46 48 49 50 52 53 54
28 27 26 26 26 25 24 24 24 23 23 23 23 23 24 24 24 24 24 25 26 26 27 28 29 31 31 32 34 36 38 39 41 43 45 46 48 49 51 52 53 54 54
26 25 25 25 25 24 24 24 24 24 24 25 24 24 24 24 25 25 25 26 26 27 29 30 31 32 33 34 36 38 40 42 43 45 46 47 48 50 51 52 52 52 52

GEFSMW_500_meanwind_126.txt.gz
Wind_Speed
19 17 15 12 8 6 3 3 6 9 12 13 14 14 15 17 17 17 15 15 14 13 11 10 9 8 7 6 5 4 4 3 3 2 2 2 1 1 1 1 0 0 1
18 15 15 11 6 4 2 3 5 8 11 12 14 15 14 15 16 16 15 14 15 14 12 11 10 9 8 7 6 5 5 3 2 2 1 1 1 0 1 0 1 1 1
16 13 13 9 5 3 2 2 5 8 9 11 13 14 13 12 14 14 14 14 14 14 13 12 11 11 9 8 7 6 5 4 3 2 2 2 1 2 2 2 2 2 2
13 12 9 6 3 1 1 2 5 7 8 10 12 13 11 12 14 14 14 14 13 13 14 13 12 11 11 10 9 8 7 6 5 4 4 4 3 3 3 3 4 4 4
11 10 8 4 2 2 2 3 5 6 8 10 12 12 12 12 13 14 14 14 14 14 15 15 13 13 12 11 10 10 9 8 7 6 6 6 6 5 5 6 6 6 6
9 8 7 4 2 2 2 2 4 6 8 9 10 10 11 12 13 14 14 14 14 14 15 15 14 14 13 12 11 11 10 10 9 9 8 8 8 8 8 8 8 9 9
8 8 7 5 3 1 2 2 3 5 7 9 9 9 10 10 13 14 14 14 14 14 15 15 15 15 14 13 13 13 12 12 11 11 11 12 12 12 12 12 12 11 12
8 7 6 5 3 1 2 2 3 4 6 8 10 10 10 11 12 14 15 15 15 16 16 15 15 15 15 15 14 15 14 14 14 14 14 14 14 14 14 14 14 14 14
7 7 6 5 4 3 3 2 3 4 5 7 9 11 12 12 13 15 15 15 15 16 16 16 16 16 17 17 17 17 16 16 16 16 16 16 16 16 16 16 17 17 17
7 6 6 4 4 4 4 4 4 5 6 7 9 11 12 13 14 15 16 16 16 16 17 17 17 17 18 18 18 18 18 18 18 18 18 19 19 20 19 19 20 20 20
7 7 7 6 5 5 5 5 6 6 6 7 9 10 12 14 15 16 16 16 17 17 17 17 17 18 18 19 19 19 20 20 20 20 21 22 22 22 23 22 22 23 23
7 8 8 7 6 6 6 6 6 7 7 8 9 11 12 13 14 16 16 16 17 17 18 18 19 20 20 20 20 21 21 22 23 23 23 24 24 24 24 25 25 25 26
7 8 8 7 7 7 6 6 7 7 8 8 9 11 12 12 14 16 17 18 18 18 19 20 21 22 22 21 22 22 23 24 24 24 25 25 26 26 26 27 27 27 28
9 9 8 7 7 6 6 7 8 8 8 9 9 10 11 13 14 15 16 18 19 20 21 21 21 22 23 22 22 23 23 24 25 26 26 27 27 28 28 28 28 28 28
11 10 8 8 7 7 8 8 8 9 9 9 10 10 11 13 14 15 16 17 19 20 22 22 22 23 23 24 24 24 25 25 25 26 27 28 28 28 28 28 29 30 31
14 12 10 10 10 10 10 9 9 9 9 10 11 11 12 13 14 15 16 17 18 19 21 22 22 23 24 24 25 26 26 26 27 27 28 28 29 28 28 29 31 32 33
16 15 14 13 12 11 11 11 11 11 11 11 12 12 12 12 13 14 16 17 18 19 20 22 23 24 24 25 25 24 25 27 28 28 28 29 30 30 31 32 34 34 35
18 18 18 17 16 15 14 14 14 13 13 13 13 13 13 13 14 14 14 15 18 20 20 21 23 24 23 23 24 25 26 27 28 29 29 30 31 32 33 34 35 35 37
20 21 21 20 19 18 17 17 16 16 15 14 14 14 14 14 14 15 15 16 17 18 19 19 22 23 24 25 26 27 28 29 30 30 31 31 33 34 35 36 38 39 40
22 21 21 20 20 20 19 19 19 18 18 16 16 16 16 16 15 16 17 18 18 18 19 20 21 23 24 24 26 27 28 29 30 31 32 33 34 35 37 38 39 41 42
23 22 21 22 22 22 21 20 21 20 19 19 19 19 18 18 18 18 18 19 19 19 20 21 21 22 24 25 26 27 28 29 30 32 33 35 36 38 39 40 42 43 45
24 24 23 24 24 23 22 22 22 21 22 21 21 21 21 20 20 20 21 21 20 20 21 22 23 24 24 25 27 29 30 32 32 34 36 37 38 40 41 42 44 46 48
26 25 24 24 24 23 23 23 23 23 23 23 23 22 22 22 22 22 21 21 22 23 23 24 25 26 26 28 28 30 32 33 34 36 37 38 40 42 43 45 47 49 51
26 25 25 25 25 24 24 23 23 24 24 24 23 23 22 22 23 23 23 24 25 25 25 26 26 27 28 30 31 33 33 34 37 39 39 40 42 44 46 48 50 51 53
26 25 25 24 24 24 24 24 24 24 23 23 23 22 22 22 23 24 25 26 26 26 27 27 28 29 30 32 33 35 36 38 39 40 41 42 44 46 47 49 50 51 52
25 25 25 25 25 25 24 24 23 23 23 24 23 23 23 24 25 26 27 27 27 27 27 28 29 30 31 33 34 35 36 38 39 41 42 44 45 47 48 49 51 51 52

GEFSMW_500_meanwind_132.txt.gz
Wind_Speed
15 15 14 12 10 8 7 6 8 9 11 12 14 15 15 16 16 16 15 15 14 13 12 11 10 9 8 8 7 6 5 4 4 3 3 2 2 1 1 1 0 0 0
14 14 13 11 8 7 5 4 5 8 11 12 13 13 14 15 15 15 16 15 14 13 12 12 11 9 9 9 8 7 6 5 4 4 3 3 2 1 1 1 1 1 1
13 12 11 9 8 6 4 3 4 7 10 11 12 13 13 14 14 14 14 15 14 13 13 12 11 10 10 10 9 7 7 6 5 4 4 3 3 3 2 2 2 2 2
11 10 9 8 7 5 3 2 3 6 8 10 11 12 12 13 14 14 14 14 14 13 13 12 12 12 11 11 10 9 8 8 7 6 6 5 5 4 4 4 4 4 5
9 8 7 8 6 5 3 2 2 5 7 9 11 12 12 13 13 13 13 14 14 13 13 12 12 13 12 12 11 11 10 9 9 8 7 7 7 7 6 6 6 7 7
8 7 6 7 5 3 2 2 2 3 5 8 9 10 12 12 12 13 14 14 14 14 14 13 13 13 13 13 13 12 12 11 10 10 9 9 9 9 9 9 9 10 9
6 5 4 5 3 1 1 2 3 3 5 6 7 9 11 12 12 13 13 13 14 14 15 14 14 14 14 14 14 14 13 12 12 12 12 12 12 12 12 12 12 12 12
4 4 4 3 3 2 1 2 2 3 4 5 6 7 9 11 12 13 13 14 14 14 15 15 15 15 15 15 15 15 15 14 14 14 14 14 14 15 15 15 15 15 15
5 4 4 4 3 2 2 3 3 3 4 5 6 7 9 10 12 13 13 14 15 15 15 15 16 16 16 16 17 16 16 16 16 16 16 17 17 17 17 17 17 18 18
5 5 4 4 4 3 3 3 4 5 5 6 7 8 9 11 13 13 14 15 16 16 15 15 16 17 18 18 18 18 18 18 19 19 19 19 19 20 20 20 21 21 21
5 5 5 4 4 4 4 4 5 6 7 7 8 9 10 11 12 14 15 16 16 17 17 17 17 18 19 19 19 19 20 20 21 21 21 21 22 22 23 23 23 23 24
5 5 5 5 5 5 5 5 6 7 8 9 9 9 11 12 12 13 15 16 17 18 18 18 18 18 19 20 20 20 21 21 21 22 22 22 23 23 24 24 25 26 26
7 7 6 6 6 7 7 7 8 8 9 9 10 10 11 12 13 15 16 17 18 18 19 19 20 20 20 21 21 21 22 23 23 24 24 24 24 25 26 26 27 27 28
9 9 8 8 8 8 8 8 8 9 10 11 11 11 12 13 14 15 15 17 19 19 20 20 20 21 22 22 22 23 23 24 25 25 26 26 26 27 27 28 28 29 30
11 10 10 9 9 10 10 10 11 11 11 12 12 12 12 13 14 15 16 17 18 20 21 21 22 23 23 24 25 25 24 25 26 27 27 27 28 28 28 29 29 30 31
13 13 11 10 11 11 11 11 12 12 12 12 13 13 13 13 14 15 16 18 18 20 21 23 24 23 24 24 25 26 26 27 28 29 29 28 29 30 30 31 32 32 32
15 14 14 13 13 13 13 13 13 13 12 13 14 14 14 15 16 16 17 18 19 20 21 23 24 26 26 26 27 27 27 28 29 29 29 29 30 31 32 33 34 34 34
17 17 16 16 16 16 16 16 15 15 14 14 15 15 16 16 17 18 18 18 19 20 21 22 24 25 25 25 26 27 28 28 28 28 29 31 32 32 33 34 35 35 36
20 19 19 18 19 18 18 18 18 17 17 17 17 18 17 17 18 18 19 18 19 19 19 20 21 23 24 25 26 27 27 27 28 29 30 31 32 33 34 35 36 37 38
23 22 21 21 20 20 20 19 19 19 19 20 20 20 20 20 20 20 20 20 20 20 20 20 21 22 23 25 26 27 27 28 29 30 31 32 33 34 34 35 36 37 38
25 24 23 23 22 21 21 21 21 21 21 21 21 21 21 21 22 22 22 23 22 22 22 23 24 24 24 25 25 26 27 28 29 31 32 33 33 34 35 36 37 38 40
26 26 25 25 24 24 24 24 24 23 23 23 22 22 23 23 23 24 24 25 25 25 23 24 24 25 25 25 26 27 28 29 30 31 33 34 34 36 37 38 39 40 42
27 26 27 27 27 26 26 26 26 26 25 25 24 23 24 24 25 25 25 25 25 25 25 25 25 26 26 27 28 28 29 30 31 33 35 36 37 38 39 40 41 42 44
27 27 28 28 28 28 28 27 26 26 26 26 25 25 25 26 26 26 25 25 26 27 27 27 27 27 28 29 30 30 31 32 33 35 36 37 38 39 40 42 42 43 44
26 27 28 28 28 28 28 27 27 26 26 26 27 26 26 27 26 26 26 26 27 27 26 26 28 28 29 30 31 32 32 33 34 35 36 38 39 40 41 42 43 44 45
26 27 26 27 27 27 27 26 26 27 26 26 27 27 28 26 26 26 26 26 27 27 27 28 29 29 30 31 32 32 33 34 35 36 37 38 39 40 41 42 43 44 45

GEFSMW_500_meanwind_138.txt.gz
Wind_Speed
18 17 16 15 14 11 8 6 5 5 6 8 8 10 10 10 11 12 12 13 12 11 11 10 9 8 7 6 5 5 4 3 2 1 1 1 1 0 0 1 1 1 1
16 15 15 14 12 10 8 6 3 4 5 7 8 10 11 10 11 11 12 13 12 12 12 10 9 9 8 7 7 6 5 5 4 3 3 2 2 1 1 1 1 1 2
16 15 15 14 11 9 7 5 3 3 5 6 8 9 10 10 10 11 12 12 12 13 13 12 10 9 9 8 8 8 7 6 6 5 4 4 3 3 2 2 2 2 2
16 15 13 11 9 8 6 5 4 3 4 5 6 8 9 10 11 10 11 11 12 13 12 12 11 10 10 9 9 9 9 8 7 6 6 6 5 4 4 4 4 4 4
16 14 11 9 8 7 6 5 3 3 3 3 5 8 9 10 10 10 11 12 13 13 13 13 12 11 11 10 10 10 10 10 9 8 8 8 7 7 6 6 6 6 7
14 11 9 8 8 6 5 5 4 3 2 3 4 6 8 9 10 10 11 12 12 13 14 14 14 13 12 12 12 11 12 11 11 11 10 10 10 9 9 9 9 9 9
12 9 8 8 7 7 6 4 4 3 2 3 5 6 7 8 9 10 11 12 12 13 13 14 14 14 14 13 13 13 13 13 13 13 13 12 12 12 12 12 12 12 12
10 8 7 7 7 7 6 4 4 4 3 3 4 5 6 6 7 9 10 12 12 12 13 14 14 14 14 15 14 14 14 15 15 15 14 14 14 14 15 15 15 16 16
9 7 7 7 7 7 5 4 4 3 3 3 4 5 5 5 6 8 9 11 12 13 13 14 15 15 15 16 16 15 15 16 16 16 16 16 16 17 18 18 18 18 19
9 8 8 7 7 5 4 4 4 4 4 4 4 5 6 6 7 8 10 11 12 13 14 14 14 15 15 16 17 17 17 16 17 18 18 19 19 20 21 21 21 21 21
10 9 8 7 7 6 4 4 4 4 4 5 5 5 6 7 8 9 10 12 13 13 14 15 16 17 17 17 17 18 18 18 18 19 19 20 21 22 22 22 23 23 24
10 9 8 7 7 7 6 6 5 5 5 6 7 7 7 8 9 10 11 12 14 14 15 15 16 17 18 18 18 18 19 19 20 20 21 22 22 23 23 24 25 25 25
12 11 10 9 9 9 8 8 7 7 7 8 8 9 10 10 11 11 11 11 13 14 15 16 17 18 19 19 19 20 21 22 22 23 24 24 24 24 25 25 26 27 28
14 13 12 12 11 11 11 10 10 9 9 9 10 11 11 11 11 11 11 12 13 14 15 16 17 19 19 20 20 21 22 22 23 24 25 26 27 26 27 27 28 29 30
15 15 14 13 13 13 12 12 11 11 11 11 12 12 12 12 12 12 13 13 14 15 16 17 18 20 21 22 22 23 23 23 24 25 26 27 29 29 29 29 30 31 32
17 16 15 15 14 14 14 13 13 13 12 13 13 13 13 13 13 13 13 14 14 15 16 17 18 19 20 21 22 23 24 24 25 26 27 29 30 31 31 31 32 33 33
20 19 17 16 16 16 15 15 15 15 14 14 14 14 14 14 14 14 15 15 16 17 17 17 18 18 19 20 22 23 25 26 26 27 29 30 30 31 32 33 34 34 34
22 21 19 18 18 18 17 17 17 17 17 17 17 16 16 15 16 15 16 17 18 18 18 19 19 20 21 22 23 24 26 27 28 29 30 30 30 31 32 33 34 34 34
23 22 22 21 20 20 20 20 20 20 19 19 19 18 17 17 17 17 18 19 19 19 20 20 21 22 23 24 25 27 27 28 28 29 30 30 30 30 32 33 34 34 34
23 23 24 23 23 23 22 21 21 21 21 21 20 20 19 19 19 19 19 20 21 21 22 23 23 23 24 25 26 27 27 28 28 28 28 30 30 31 33 34 35 35 35
25 25 25 25 25 25 24 23 22 23 23 22 22 22 21 21 21 22 22 21 22 22 23 23 24 24 25 26 26 26 27 27 27 28 29 30 30 31 33 34 35 35 36
27 26 26 25 26 26 26 25 25 25 25 25 25 24 24 24 23 23 23 23 23 23 24 24 25 26 26 26 27 27 27 28 28 29 30 31 32 32 33 34 35 36 37
27 27 27 26 26 26 26 26 26 26 26 26 27 27 26 25 25 25 25 25 25 26 26 26 26 27 27 27 28 28 29 29 30 31 32 33 33 33 35 35 36 37 38
28 28 28 28 27 27 27 26 27 27 27 27 27 27 28 27 27 26 26 27 27 27 27 28 28 28 27 28 29 29 30 31 32 33 34 34 34 34 35 36 36 37 38
29 29 28 27 27 27 27 27 27 28 28 28 28 28 28 28 27 27 27 28 28 28 29 29 29 28 28 29 29 30 30 32 33 33 34 35 35 35 35 36 38 39 41
30 29 28 27 26 27 28 28 28 28 28 28 27 27 26 27 27 27 28 28 28 28 28 27 28 28 28 29 30 31 32 32 33 33 34 35 36 37 37 38 38 39 39

GEFSMW_500_meanwind_144.txt.gz
Wind_Speed
18 17 16 15 13 10 7 6 3 3 3 3 4 6 8 9 11 11 12 12 12 12 11 11 10 8 8 7 6 6 5 5 4 4 4 3 2 2 2 1 1 1 1
18 17 15 14 12 10 7 4 2 2 2 3 4 5 7 8 9 11 11 12 12 12 12 12 11 9 8 7 7 7 7 6 6 5 4 4 4 4 3 2 2 2 2
17 16 15 13 11 9 7 4 1 1 2 4 4 5 6 8 9 10 11 12 12 12 12 12 12 11 9 9 8 8 8 7 7 6 6 6 6 5 5 4 3 3 3
17 15 14 12 9 8 5 2 0 1 2 4 4 6 6 8 9 10 12 12 13 12 12 12 12 11 11 10 9 9 9 9 8 8 8 8 7 7 6 6 5 5 5
16 14 12 9 7 6 4 3 1 1 2 3 5 6 7 8 9 10 11 12 12 12 13 13 13 12 11 11 11 10 10 10 10 9 9 9 9 9 9 8 8 7 7
14 13 10 8 6 5 4 3 2 1 2 3 4 5 7 8 9 10 11 12 12 12 14 14 14 13 13 12 12 11 11 11 11 11 10 11 11 11 11 11 10 10 9
12 11 9 8 6 4 3 3 1 0 1 2 3 5 5 7 8 10 12 12 12 13 14 14 14 14 14 13 13 13 13 13 13 13 13 13 13 13 13 13 13 13 12
10 9 9 7 6 4 3 2 1 1 1 2 3 4 5 6 8 10 11 12 12 12 13 14 14 14 14 14 14 14 14 14 14 14 14 14 14 14 15 15 15 15 15
10 10 8 6 5 4 3 3 2 2 2 2 2 3 4 5 7 9 10 11 11 12 13 14 14 15 14 14 14 15 15 15 15 15 16 16 16 16 17 17 17 17 18
10 10 8 7 6 4 3 4 3 3 2 2 3 3 4 4 6 7 8 10 11 12 13 14 15 15 15 15 15 15 16 16 16 17 18 18 17 18 19 19 20 20 20
9 9 8 6 5 5 4 4 4 3 2 3 3 4 4 5 6 6 7 8 10 12 13 14 14 14 15 16 17 18 17 17 17 18 19 19 19 19 20 21 21 22 22
9 9 8 7 6 6 5 5 5 4 3 4 4 4 5 6 6 7 8 9 10 11 13 14 14 15 16 17 18 18 19 19 19 20 20 20 21 21 22 22 23 23 24
10 9 8 7 7 6 6 5 5 5 4 5 5 5 6 6 7 8 9 10 11 11 12 14 15 16 16 17 18 19 20 20 21 21 21 22 23 23 24 25 26 26 26
10 10 8 8 8 7 6 6 6 6 6 7 7 7 7 7 8 8 10 10 11 12 13 13 14 16 17 17 18 19 20 20 21 21 22 23 24 24 26 26 27 27 28
12 12 11 10 10 9 9 8 8 8 8 8 8 8 9 9 9 10 10 10 12 13 13 13 14 16 17 18 18 18 19 20 21 22 23 24 24 24 25 26 27 28 28
14 13 12 11 11 10 10 10 10 10 10 10 10 10 10 10 10 11 11 11 12 13 14 14 15 16 16 17 18 19 19 21 21 23 23 24 25 26 27 28 29 30 30
15 14 13 13 11 11 11 11 11 11 12 12 12 12 12 12 12 12 11 12 13 14 15 16 16 17 17 18 19 20 20 21 22 23 25 25 26 28 29 30 30 31 31
16 16 14 14 14 13 13 13 14 14 13 14 14 14 14 14 14 14 13 13 13 14 15 17 17 18 18 19 20 21 21 22 22 23 24 26 27 27 28 30 30 31 31
19 18 17 17 15 15 15 15 15 15 15 15 16 15 15 15 16 15 15 15 15 16 16 18 19 20 20 21 21 21 21 22 23 24 26 27 27 27 29 30 30 30 31
21 19 19 18 17 16 17 18 17 17 17 17 17 18 17 17 17 17 18 17 17 18 18 19 20 20 21 21 22 22 23 23 24 25 26 26 27 28 29 30 30 31 31
23 22 21 20 19 18 19 19 19 19 19 19 20 20 19 19 19 19 19 19 19 19 20 20 20 21 21 22 23 24 24 24 26 26 26 27 27 28 29 30 31 32 32
24 24 22 22 21 21 21 21 21 21 21 21 21 21 21 21 21 21 21 21 21 21 21 21 22 22 22 23 23 24 25 26 26 27 27 27 28 29 31 32 33 33 33
25 24 23 23 23 23 22 22 22 23 23 22 22 22 22 23 23 23 22 23 23 23 24 24 24 24 24 25 25 26 26 26 27 27 27 29 30 31 32 33 33 34 35
27 26 25 25 24 24 24 24 25 24 24 24 23 23 23 24 24 23 23 23 24 25 25 25 24 24 25 25 25 26 25 26 26 27 29 30 31 31 32 33 33 33 34
27 26 26 26 26 25 25 26 26 26 25 25 25 24 24 24 24 24 23 23 23 24 24 24 24 25 25 25 25 26 26 26 26 27 29 30 31 31 31 32 33 34 35
28 27 27 27 26 26 26 26 26 26 25 25 24 25 24 24 23 23 23 23 24 24 24 24 24 24 24 24 25 25 26 27 28 29 30 30 31 32 33 33 34 35 35

GEFSMW_500_meanwind_150.txt.gz
Wind_Speed
15 15 14 14 13 12 10 6 3 2 3 4 5 6 7 7 9 10 10 10 10 9 9 9 9 8 8 7 6 5 5 5 4 3 3 3 2 2 2 2 2 2 2
15 14 14 13 13 11 9 5 2 3 3 3 4 5 6 7 8 9 10 10 9 9 10 11 10 9 8 8 7 6 6 6 5 5 5 4 4 4 4 3 3 3 3
15 14 13 13 12 10 7 4 2 3 4 4 4 5 6 7 8 9 10 11 11 10 10 10 11 11 10 9 8 7 7 7 7 7 7 7 6 6 6 5 5 5 5
14 13 12 11 10 8 6 3 1 2 4 5 5 5 6 6 8 8 9 10 11 11 11 11 11 11 11 10 10 9 9 8 9 9 9 8 8 8 7 7 8 7 7
14 13 12 11 9 7 5 2 0 1 3 5 5 6 6 7 7 8 9 11 11 11 11 11 11 11 11 11 11 11 10 10 10 10 10 10 10 10 10 10 10 10 10
13 12 11 10 7 6 4 2 1 1 2 3 4 5 6 7 8 9 10 10 11 11 11 11 11 11 12 12 12 13 12 12 12 12 12 12 13 13 12 12 13 13 13
12 11 10 10 7 4 3 2 1 1 2 3 3 4 6 7 8 10 10 10 11 11 12 12 12 12 13 13 13 14 14 13 14 13 14 14 15 15 15 15 15 15 15
10 10 9 9 7 5 3 2 1 0 1 2 3 3 5 6 7 9 10 11 12 12 12 13 13 13 14 14 15 15 15 15 16 16 15 16 16 17 17 17 17 18 18
10 9 8 7 6 5 3 2 1 1 1 1 2 3 3 5 6 8 9 10 11 12 13 13 14 14 14 15 15 16 16 16 17 17 17 17 18 19 19 19 19 20 21
10 9 7 7 6 5 4 3 2 3 3 3 4 4 5 5 6 8 9 10 11 12 13 14 14 15 15 15 17 17 17 18 18 19 19 19 19 20 20 21 22 22 22
9 9 8 7 6 5 4 4 4 4 5 5 5 5 6 6 7 8 9 10 11 12 12 14 14 15 15 16 17 18 19 19 20 20 20 21 22 22 22 23 23 24 24
9 9 9 7 6 5 5 5 5 6 6 6 6 6 6 7 7 7 8 9 10 12 13 14 15 16 16 17 17 19 20 20 20 21 21 22 23 23 24 24 24 25 26
10 10 11 9 7 6 6 6 7 7 7 7 7 7 8 8 8 8 9 10 11 12 13 14 16 17 17 18 19 20 20 20 21 22 23 23 23 24 25 25 25 26 27
11 10 10 10 9 8 7 7 8 7 8 8 7 8 8 9 9 10 10 10 11 12 13 15 15 17 18 18 19 19 19 21 21 22 23 25 25 25 26 26 27 28 29
11 11 11 11 10 9 9 8 9 9 9 8 8 9 9 10 10 11 11 12 12 13 14 15 16 17 18 19 20 20 21 21 22 23 23 24 25 26 27 27 28 29 29
12 12 12 12 12 11 10 10 10 11 11 11 10 10 11 11 11 12 13 14 14 15 15 16 17 18 19 20 20 21 22 22 23 23 24 25 26 26 27 28 29 29 30
13 14 13 12 11 11 10 10 11 11 12 12 12 12 12 12 13 14 15 16 16 16 16 17 18 19 19 20 22 23 23 23 24 24 25 26 27 27 28 28 29 30 30
15 14 13 12 13 13 12 12 12 13 13 14 13 13 13 14 15 15 16 16 17 17 18 19 19 20 21 22 22 23 24 24 25 25 26 27 27 28 29 29 30 31 32
15 15 15 15 14 14 13 13 14 14 14 15 16 15 15 16 16 17 17 17 18 18 19 20 21 21 22 22 23 24 25 26 26 27 28 28 29 29 30 30 31 32 33
17 16 16 16 16 16 15 15 16 15 16 17 17 17 17 17 18 18 19 19 19 20 20 21 22 23 24 24 25 26 27 27 28 29 30 30 30 31 31 31 32 32 33
19 18 18 18 18 17 17 17 17 17 17 18 18 18 19 19 20 20 20 20 21 22 23 23 24 24 25 26 26 27 28 28 29 29 29 30 30 30 31 32 32 33 34
21 21 21 21 20 19 20 19 18 19 19 20 20 21 21 22 22 22 22 22 23 23 23 24 25 25 26 26 27 28 28 29 29 29 29 29 30 30 31 32 33 34 35
24 24 24 24 23 23 22 22 21 21 21 22 22 23 23 24 24 24 23 23 23 24 25 26 26 27 27 27 28 29 29 29 29 29 29 29 30 31 32 33 34 35 36
25 25 25 24 24 24 23 22 22 22 23 24 24 24 24 25 25 24 24 24 25 26 27 27 27 28 28 29 29 29 29 29 29 29 30 30 31 32 33 34 35 36 36
28 27 26 25 24 22 22 22 22 23 24 25 25 25 25 25 25 25 25 26 26 27 28 28 27 28 28 29 29 29 29 28 29 30 30 31 32 33 34 35 36 35 35
28 28 27 26 25 25 24 23 24 25 25 26 26 26 27 27 27 27 27 27 28 29 30 29 29 29 29 30 29 29 29 30 30 31 32 33 34 34 35 35 35 35 35

GEFSMW_500_meanwind_156.txt.gz
Wind_Speed
14 14 14 14 13 12 10 8 7 6 6 7 7 7 7 7 7 8 9 9 9 8 7 7 7 7 7 7 7 6 5 4 4 3 3 3 3 2 2 2 2 3 3
14 14 14 14 13 12 10 9 7 6 6 6 6 7 8 7 8 8 8 9 9 8 8 8 8 8 8 8 7 7 6 5 5 5 5 4 4 4 4 4 4 4 5
14 14 14 14 13 11 10 9 6 5 6 6 6 7 8 7 8 8 9 9 9 9 9 9 8 8 8 8 8 8 8 7 7 6 6 6 6 6 6 6 6 6 6
14 14 14 13 13 12 10 8 4 4 5 5 6 7 7 7 8 9 8 8 9 10 10 10 10 9 9 9 9 9 9 9 8 8 8 8 8 8 8 8 8 8 8
13 14 13 12 11 10 9 7 4 4 5 5 6 7 7 7 7 8 8 8 9 10 11 10 10 10 10 10 10 10 10 10 9 9 9 10 10 10 10 10 10 11 11
13 13 13 11 10 9 8 5 2 2 3 4 5 6 6 6 6 7 8 8 8 9 10 11 11 10 10 10 11 11 11 11 11 11 11 12 12 13 13 13 13 14 14
13 13 12 11 10 8 7 4 2 2 2 4 5 5 6 6 7 7 7 8 9 9 10 11 11 11 11 11 12 12 12 12 13 13 13 14 14 14 15 15 16 16 16
12 11 11 11 9 8 6 4 3 3 3 4 5 5 5 5 6 7 7 9 9 9 9 11 12 12 12 12 13 13 14 14 14 15 16 16 16 17 17 17 18 18 19
10 11 11 10 8 7 5 4 4 4 3 4 4 4 4 5 5 6 7 8 10 10 11 12 13 13 12 13 14 14 15 16 16 17 17 18 19 20 20 20 20 21 22
9 9 10 9 7 5 4 4 5 4 4 4 4 4 5 5 6 6 7 7 8 10 11 12 13 13 13 13 14 14 15 17 17 18 19 19 20 21 22 22 23 24 24
9 9 9 8 7 5 4 5 5 4 4 3 4 5 6 7 7 8 8 9 9 10 11 13 13 14 15 15 16 16 17 17 18 19 20 20 21 21 22 22 24 24 26
9 9 9 8 7 6 6 6 5 5 5 5 5 6 7 8 9 10 10 10 10 11 12 13 14 14 15 16 16 17 18 18 19 20 20 21 22 22 22 24 24 25 25
9 9 9 8 8 7 7 7 6 6 6 6 7 8 8 9 10 11 11 12 12 12 12 13 14 15 16 17 17 17 18 19 20 20 21 21 22 23 23 25 25 25 26
10 10 9 8 8 9 8 8 8 8 8 8 9 9 10 11 12 12 12 13 13 12 13 15 15 16 17 18 18 18 19 20 20 21 22 22 23 24 24 25 26 27 28
11 11 10 10 10 10 10 9 9 9 9 10 10 11 11 12 12 12 13 13 13 14 15 16 17 18 18 18 19 19 19 20 21 22 22 23 24 24 25 26 27 27 28
12 12 12 12 11 11 11 10 10 10 10 10 11 11 11 12 12 13 13 14 14 15 16 17 18 18 18 18 19 20 21 21 22 23 24 25 25 26 27 28 28 28 28
14 14 14 14 13 13 12 11 11 12 12 12 13 12 12 12 13 13 14 14 15 16 17 17 18 19 19 19 20 21 22 23 23 24 25 26 27 27 28 28 28 29 29
15 15 15 14 14 14 14 13 14 14 14 14 14 14 14 14 15 15 15 16 16 17 18 18 19 20 21 21 22 23 23 24 25 25 26 26 27 28 28 29 30 30 30
16 15 15 15 15 15 15 16 16 16 16 16 15 15 15 15 15 16 17 17 18 18 19 19 20 21 22 23 24 24 24 25 26 27 27 27 28 29 29 30 30 30 31
18 17 17 16 16 16 17 17 17 17 18 18 18 18 18 17 18 18 18 19 19 20 20 21 22 22 23 23 25 26 27 27 28 28 28 29 30 30 30 31 31 31 31
20 19 19 18 18 18 18 18 19 19 19 19 20 20 19 20 20 20 20 21 22 22 23 23 24 24 24 25 25 27 28 28 29 29 30 31 31 31 31 32 32 32 32
22 21 21 20 20 20 20 20 20 20 21 21 21 22 21 21 22 22 23 23 23 24 24 25 26 26 27 26 27 28 29 29 30 31 31 31 31 32 32 32 32 32 33
24 24 23 23 23 23 23 22 22 22 23 23 24 24 24 23 24 25 25 25 25 25 25 25 26 26 27 27 28 29 30 31 32 31 31 31 31 32 32 32 33 33 33
25 25 25 25 25 24 25 25 25 25 25 26 26 25 25 25 26 27 27 27 26 27 27 27 28 28 29 30 30 31 31 32 32 32 31 31 31 32 32 33 34 34 34
26 26 27 27 27 27 26 27 27 27 27 27 27 27 27 27 28 28 28 27 27 28 28 29 29 30 30 31 32 32 32 32 32 31 31 31 32 32 32 33 33 34 34
28 28 27 27 28 28 28 29 29 29 28 28 28 28 28 29 29 29 28 29 29 29 30 30 30 30 31 31 31 31 31 31 31 31 31 31 32 32 32 33 33 34 33

GEFSMW_500_meanwind_162.txt.gz
Wind_Speed
16 16 16 17 16 16 16 14 14 11 9 7 6 5 5 4 4 5 6 6 6 7 7 6 5 5 5 5 5 4 4 4 4 3 3 3 3 3 3 3 3 3 3
16 15 16 16 17 17 16 15 13 11 9 7 6 5 5 5 4 5 6 6 6 7 7 6 6 6 6 6 6 5 5 5 5 5 5 5 5 5 5 5 6 5 5
16 16 16 17 17 17 16 15 12 10 6 6 5 5 4 4 4 5 6 6 6 7 7 8 7 7 7 7 7 6 6 7 7 7 7 6 6 7 6 7 7 8 8
16 16 17 17 16 17 16 13 11 8 4 4 5 4 4 5 5 5 6 6 7 7 8 9 9 9 8 8 8 8 8 8 8 9 9 8 8 8 8 8 8 9 10
16 16 16 16 16 16 14 11 10 6 4 2 3 4 4 5 5 5 6 7 7 7 8 8 9 10 10 9 9 9 10 10 10 10 10 10 10 10 10 11 11 11 12
16 15 15 15 15 15 13 11 9 6 4 3 3 4 4 5 5 5 6 7 7 7 7 7 9 10 10 10 10 11 10 11 12 12 12 12 13 13 13 13 13 13 14
15 15 15 15 15 15 13 11 9 6 5 4 3 3 4 5 5 6 7 7 8 8 8 9 10 10 10 11 12 12 12 12 12 12 13 13 14 14 15 15 16 16 16
15 14 14 14 14 14 13 11 9 7 5 4 4 4 5 5 5 6 7 7 8 9 9 10 10 11 11 11 12 11 12 12 13 14 14 15 15 16 17 17 18 18 19
13 13 13 14 14 13 11 10 8 7 6 6 5 4 4 5 5 5 6 7 7 8 9 10 11 11 12 12 12 12 13 14 14 14 15 16 17 18 18 19 19 20 21
13 14 13 13 13 12 10 9 9 8 8 6 5 4 5 5 5 5 6 7 8 8 8 10 11 12 12 12 14 15 15 15 15 16 16 17 18 18 19 20 20 21 22
14 14 13 13 13 11 10 10 10 9 9 7 6 6 6 6 6 7 7 8 9 9 9 10 11 12 13 14 16 16 15 16 17 17 17 18 18 19 19 19 20 21 22
14 14 14 13 12 11 11 11 11 10 10 9 8 7 7 7 7 8 9 9 10 11 11 11 12 13 13 14 15 15 15 17 18 18 19 19 19 20 20 20 21 22 23
14 14 14 13 12 12 12 12 11 11 11 10 9 9 9 9 10 10 10 11 12 13 13 13 13 14 15 16 16 16 16 18 18 19 19 20 20 21 21 22 23 24 25
14 14 14 14 13 13 13 12 12 12 12 11 10 10 10 10 11 12 12 13 14 15 15 14 14 15 16 17 18 18 18 19 19 20 20 20 21 22 22 23 24 26 27
16 15 14 14 14 14 14 14 14 14 13 12 11 11 12 12 13 13 13 15 15 16 16 16 17 17 17 18 19 20 20 20 21 21 21 22 23 23 24 25 26 27 28
17 16 16 15 15 15 15 14 15 14 14 14 13 13 13 13 13 14 14 15 15 15 16 16 17 18 18 19 20 20 21 21 21 22 23 24 25 25 26 27 28 29 30
18 18 17 17 17 17 17 16 15 15 15 15 15 15 15 14 14 15 15 16 16 15 16 17 18 19 19 20 20 20 21 22 23 24 25 25 26 26 27 28 29 29 30
19 19 18 17 17 17 18 17 17 17 16 17 16 16 15 16 16 17 17 17 17 17 17 19 19 20 21 21 21 22 23 23 24 24 25 26 27 28 28 28 29 30 30
20 20 19 19 18 18 19 18 17 18 18 17 18 18 18 18 19 19 19 19 20 20 20 21 21 21 22 22 23 24 24 25 25 26 27 28 28 29 30 30 31 32 32
22 21 21 21 20 19 19 19 19 20 20 20 20 20 20 20 21 21 21 22 23 22 22 23 23 23 24 25 25 25 26 26 27 27 28 29 30 31 32 32 33 33 34
24 24 24 23 22 22 21 21 21 21 22 21 22 22 22 22 22 23 23 24 24 23 23 23 24 25 26 27 27 27 27 28 28 29 29 30 31 32 32 33 33 34 34
25 26 26 25 24 24 24 23 23 23 23 23 23 23 23 24 24 25 25 25 25 26 25 26 26 27 27 28 28 28 28 29 30 31 31 31 31 32 33 33 33 33 33
26 26 26 26 26 26 26 25 25 25 25 24 24 25 25 26 27 26 27 27 27 27 27 28 28 28 28 29 29 29 30 31 31 32 32 32 31 32 33 33 33 33 33
27 27 27 27 27 27 27 27 26 26 26 26 27 27 28 28 29 28 29 29 29 29 29 29 29 29 29 30 31 31 32 32 32 32 32 32 33 34 34 34 33 33 33
29 28 28 28 28 28 27 28 28 28 28 29 29 29 29 29 30 30 30 30 30 30 30 30 31 31 31 32 32 32 33 33 33 33 33 33 34 35 35 34 34 34 33
29 29 29 29 29 29 29 29 30 31 31 31 31 31 31 31 32 32 32 32 32 32 32 32 32 32 32 32 33 33 33 34 34 34 34 34 35 34 34 34 34 33 34

GEFSMW_500_meanwind_168.txt.gz
Wind_Speed
19 18 17 17 16 15 14 13 11 9 6 5 3 2 3 4 5 5 5 5 5 5 5 5 5 5 5 4 4 4 4 4 4 4 4 4 4 4 5 5 5 5 5
18 17 16 16 16 16 15 14 11 7 4 4 2 3 4 4 5 5 6 6 6 6 6 6 6 6 6 5 5 5 5 5 5 5 5 5 6 6 7 7 7 7 7
17 16 15 15 16 16 14 13 11 7 4 3 2 3 4 5 6 6 6 5 6 6 6 7 7 7 7 7 6 6 7 7 6 7 7 7 8 8 8 8 8 9 9
18 17 15 16 16 14 12 12 10 6 4 3 2 3 4 5 6 6 5 5 5 6 7 7 7 7 7 7 7 8 8 8 8 8 8 9 9 9 9 9 10 10 11
17 17 16 16 15 14 12 11 10 6 5 3 1 2 3 4 5 5 6 6 7 7 8 8 8 8 8 8 8 8 9 9 9 9 10 10 11 11 11 10 11 11 11
16 17 16 16 15 13 11 10 9 7 6 4 2 0 2 4 5 5 5 6 6 7 8 9 9 10 9 9 9 9 10 10 11 12 12 12 12 12 13 13 13 13 14
15 15 16 15 15 13 10 9 8 7 6 4 3 1 1 3 5 6 6 6 6 7 7 8 9 10 10 10 10 11 11 12 13 13 13 13 14 14 14 15 15 15 16
14 15 15 14 14 11 9 8 8 8 7 5 3 2 1 2 3 5 5 6 6 7 7 7 8 9 10 11 11 12 12 13 14 14 14 15 15 15 15 16 16 17 17
13 13 13 13 12 10 9 8 8 7 7 5 5 3 2 2 3 4 5 6 6 6 7 7 8 9 10 11 12 13 13 13 14 15 16 17 17 17 17 18 18 18 18
13 13 13 12 11 10 8 8 8 8 7 6 6 5 3 3 4 4 4 5 6 6 6 8 9 10 10 11 12 12 13 14 15 16 16 17 17 17 18 18 18 19 19
13 13 12 11 10 9 7 8 8 9 8 7 6 5 4 3 3 4 4 5 6 6 7 8 9 10 11 11 12 13 13 14 15 16 16 17 18 17 18 18 19 19 20
15 12 11 11 10 9 8 8 9 9 8 7 7 6 5 4 4 4 5 6 7 7 8 8 9 11 12 12 12 13 15 16 17 17 16 17 17 18 19 20 20 21 21
14 12 11 11 11 10 9 9 9 9 9 8 7 7 6 5 5 5 6 6 7 8 9 10 10 11 12 13 14 15 16 17 17 18 18 18 19 20 21 21 22 22 23
14 14 13 12 11 11 10 10 10 9 9 9 8 7 7 6 6 7 8 8 8 9 10 11 12 13 13 14 15 16 16 17 18 19 19 19 20 21 21 21 22 24 24
18 17 15 14 13 12 11 11 11 11 10 10 10 9 9 8 8 8 8 8 9 10 11 11 12 13 15 15 16 17 17 18 18 19 20 21 21 22 22 23 24 25 26
19 17 15 14 13 12 11 11 12 11 11 10 10 10 11 10 9 10 9 10 10 11 12 12 13 14 15 16 17 17 17 18 19 20 20 21 22 23 23 24 25 25 26
20 18 16 15 14 13 12 12 12 12 11 11 11 11 11 11 11 11 11 12 12 12 13 14 15 15 16 16 17 17 18 18 19 20 21 21 22 23 24 24 25 26 26
22 21 18 17 15 14 13 13 13 13 13 13 12 13 13 12 13 13 13 13 13 13 14 15 16 16 17 17 17 18 18 19 20 20 21 22 23 24 25 26 26 26 27
23 21 20 19 17 16 16 16 15 15 15 14 14 14 14 14 14 14 15 15 16 16 16 17 17 17 18 18 18 19 20 21 21 22 22 23 24 25 25 26 27 27 28
22 21 21 20 19 18 18 18 17 17 16 16 16 16 17 17 18 17 17 18 18 19 19 18 18 19 19 20 20 21 22 22 23 23 24 25 25 26 27 27 27 28 28
23 22 22 21 21 20 20 20 20 19 18 18 18 19 19 20 20 20 20 21 21 21 21 21 21 21 21 22 23 23 24 24 24 24 25 26 27 27 27 28 28 29 29
25 24 23 22 22 22 21 21 21 21 20 20 20 21 21 21 21 22 22 22 23 23 24 23 22 22 23 24 25 25 25 26 26 26 27 28 28 28 28 29 30 30 30
25 25 24 24 24 23 22 22 22 22 22 22 22 22 23 23 23 24 24 24 25 25 24 24 24 24 25 26 26 26 27 27 27 27 27 28 29 29 30 30 31 31 31
27 27 27 25 25 24 24 24 23 23 23 24 24 24 25 25 25 26 26 26 26 26 26 26 26 26 27 28 27 27 27 27 28 28 29 29 30 30 31 31 31 31 32
28 27 26 26 25 25 25 25 25 25 25 26 26 26 26 26 27 27 27 28 27 27 28 28 28 28 28 28 28 28 28 28 29 29 29 30 31 31 31 31 31 31 32
28 28 27 27 27 27 28 28 27 27 27 27 27 27 27 27 27 27 28 28 28 28 28 29 29 29 29 29 29 29 29 30 30 30 30 30 31 30 31 30 31 31 32

GEFSMW_500_meanwind_174.txt.gz
Wind_Speed
18 18 17 17 17 15 13 11 10 7 5 4 4 3 4 5 4 4 5 5 5 5 5 6 6 5 5 4 4 4 4 4 4 4 4 4 4 4 5 5 5 6 6
17 18 17 17 17 15 13 11 11 8 6 4 4 3 4 5 5 4 4 5 4 5 6 6 6 6 5 5 5 5 5 5 5 6 6 6 6 6 6 7 7 8 8
16 17 17 17 16 15 14 12 10 9 6 4 3 3 3 4 5 5 5 5 5 5 5 7 7 7 6 5 5 5 6 6 6 7 7 7 8 8 8 9 9 10 10
15 16 16 17 16 15 14 12 9 8 6 4 2 2 3 4 5 5 5 5 5 5 5 7 8 8 8 7 7 7 7 7 8 8 8 9 10 10 10 11 11 11 11
15 15 16 16 15 14 13 11 9 8 7 5 3 2 3 3 5 6 6 6 6 6 6 7 9 9 9 9 9 9 9 9 9 9 10 11 11 12 12 13 13 13 14
15 16 15 16 15 14 12 9 8 7 6 5 3 2 3 4 5 6 7 7 7 7 8 7 8 10 10 10 10 10 10 11 11 12 13 13 13 14 15 15 15 16 16
16 16 16 16 15 13 11 9 7 6 5 5 5 3 3 3 4 6 7 8 8 9 9 9 9 9 10 11 12 12 12 12 13 14 14 15 15 15 16 17 17 18 19
16 16 17 16 15 13 10 9 7 6 5 5 5 4 4 4 5 6 7 8 9 9 10 10 10 10 11 11 12 13 13 14 14 15 16 16 16 16 17 18 19 19 20
15 16 17 16 14 12 10 9 7 6 6 6 6 6 6 5 6 6 7 8 9 9 9 10 10 11 11 12 13 13 14 14 15 16 16 16 17 18 19 19 19 19 19
16 16 17 16 13 11 9 9 8 7 7 7 7 7 7 6 6 7 7 8 8 9 10 10 11 12 12 12 12 13 14 14 15 16 17 17 18 18 19 19 20 20 20
16 16 15 16 13 11 10 9 9 8 8 8 8 8 7 7 7 7 7 7 8 9 9 10 10 11 12 13 13 14 15 16 17 17 18 19 19 19 19 19 21 22 22
16 16 15 15 14 12 10 10 9 9 9 9 8 8 8 7 7 7 7 8 8 9 10 11 12 12 12 13 14 15 16 16 17 18 18 19 19 20 20 21 22 23 24
15 16 16 16 15 13 11 10 10 10 9 9 8 8 9 8 7 7 7 8 9 9 10 11 11 12 13 14 15 15 16 17 17 18 19 20 20 21 22 23 23 24 25
15 16 17 17 16 14 12 11 11 10 10 10 9 9 9 9 8 7 8 8 9 10 11 11 11 12 13 14 16 16 17 18 18 19 19 20 21 22 22 24 25 26 27
17 17 17 17 17 14 13 12 12 11 11 10 10 10 10 10 9 8 8 9 10 11 11 11 12 13 14 15 16 17 18 18 19 20 20 21 22 23 24 25 26 27 27
18 18 18 18 17 15 13 13 13 12 12 11 11 11 10 10 10 10 10 11 11 12 12 12 14 15 17 17 18 18 19 20 21 21 22 23 24 25 26 26 27 27 27
19 19 19 19 17 15 15 15 14 14 13 13 12 12 12 11 11 12 12 12 13 13 13 14 16 17 18 19 20 21 22 22 22 23 24 25 25 26 26 26 27 28 29
20 21 20 19 18 17 16 16 16 15 15 14 14 14 14 14 14 14 14 14 14 14 15 16 17 18 19 20 21 22 22 23 23 24 25 25 25 26 26 27 28 29 29
21 20 20 20 19 19 18 18 17 16 16 16 16 16 17 16 16 16 16 16 16 16 17 17 18 19 21 22 22 22 22 23 24 24 25 26 27 27 27 28 29 30 31
20 20 20 20 21 21 20 19 18 18 18 17 17 18 17 17 17 18 18 18 19 19 19 20 20 21 22 23 23 23 23 24 24 25 26 27 28 28 29 30 31 31 31
22 22 22 22 21 21 21 21 19 20 20 19 18 19 19 19 19 19 20 20 21 21 22 23 23 23 23 24 24 24 25 26 26 27 28 28 28 29 29 30 31 32 33
23 24 24 23 22 23 23 22 21 21 21 21 20 20 20 21 20 21 22 23 23 24 24 24 24 24 25 25 25 26 26 27 28 29 29 29 29 30 30 31 32 32 33
26 25 25 24 24 24 24 23 22 22 23 22 21 21 22 23 23 23 24 23 24 24 24 24 25 25 26 26 27 27 28 29 29 30 30 30 30 31 31 32 33 33 34
26 26 25 25 25 25 25 26 24 23 23 22 22 22 23 24 24 24 25 25 26 26 25 26 27 27 27 28 28 29 30 30 31 31 31 31 31 32 33 33 33 33 33
26 26 27 27 26 26 27 26 24 23 22 23 23 24 24 25 26 26 27 27 27 27 27 28 28 28 27 28 28 29 30 31 31 32 32 32 33 33 33 34 34 34 33
28 28 29 28 28 27 26 25 25 25 24 24 25 26 26 26 27 28 28 27 28 28 29 29 28 28 28 28 29 30 31 32 32 33 33 33 34 33 33 34 34 33 33

GEFSMW_500_meanwind_180.txt.gz
Wind_Speed
15 15 15 15 13 12 11 11 10 8 7 5 3 1 2 4 4 4 5 5 6 6 6 6 6 7 6 5 5 5 4 4 4 4 4 4 4 4 5 5 6 7 7
14 14 15 15 14 13 12 11 11 10 7 5 3 2 2 4 4 4 5 6 6 6 6 7 7 7 7 7 6 6 5 5 5 5 6 6 6 6 7 7 8 8 9
14 14 15 15 14 14 13 11 11 10 8 5 3 3 2 3 4 4 5 6 6 6 6 7 7 8 8 8 7 7 6 6 6 7 7 8 8 8 8 9 9 10 11
14 14 15 15 14 14 14 11 10 9 8 6 4 3 2 2 3 4 5 6 6 6 6 7 7 8 8 9 9 8 8 8 8 8 8 9 9 10 10 11 11 12 13
14 14 15 14 14 14 13 11 9 8 8 7 5 3 1 2 2 3 5 6 7 7 7 7 7 8 8 9 9 9 9 9 9 9 10 11 11 12 12 13 14 14 15
14 15 15 14 14 14 12 10 8 8 7 6 5 4 3 3 3 4 5 5 6 7 7 7 7 8 8 9 10 11 11 11 11 11 12 12 13 13 14 14 15 16 16
14 15 15 15 15 13 12 9 8 7 7 6 6 5 4 4 4 5 5 6 7 8 8 9 9 9 9 10 11 12 12 13 13 13 14 14 15 15 16 16 16 17 18
14 15 15 15 15 13 11 9 7 7 6 6 6 6 5 5 5 6 6 7 7 8 9 10 10 10 11 12 12 12 13 14 14 15 15 16 16 17 17 17 18 19 19
13 14 14 15 14 12 10 9 8 8 7 6 6 6 6 6 6 7 7 7 8 9 10 10 11 11 12 13 14 14 14 15 15 16 16 16 17 18 18 19 19 20 20
13 14 14 15 14 12 11 10 9 8 8 7 7 7 7 7 7 7 7 8 9 10 10 11 11 11 12 13 14 15 15 15 15 16 16 17 18 19 20 20 20 20 21
14 14 15 14 14 13 12 12 11 11 10 8 8 7 7 8 8 8 8 9 10 10 11 11 11 12 12 13 13 14 15 16 16 17 18 18 19 19 20 21 21 22 21
14 14 15 15 15 14 13 13 12 12 10 9 9 8 9 9 10 10 10 10 11 11 12 12 12 12 13 14 14 15 15 16 17 18 19 19 20 21 21 21 21 21 22
14 15 15 16 16 15 15 14 13 12 11 10 10 9 10 10 11 11 11 11 11 11 12 12 13 13 13 14 15 16 16 17 17 18 18 19 19 20 21 22 22 22 23
14 15 16 16 16 16 16 15 14 13 12 11 11 11 11 10 11 11 11 11 11 11 11 12 13 13 14 15 16 17 17 18 19 19 20 20 21 21 21 22 23 24 25
15 16 17 17 17 17 17 16 15 14 14 13 12 12 13 12 12 12 12 12 12 12 12 13 14 15 15 16 17 18 19 19 20 20 21 22 23 23 24 24 24 25 27
16 17 18 18 18 18 18 17 16 16 15 14 14 13 14 14 13 13 13 13 13 13 13 14 15 16 17 18 18 19 20 21 22 22 23 24 25 25 26 26 26 27 28
17 18 18 18 18 18 18 18 17 16 16 16 16 16 15 15 15 15 15 14 14 14 15 15 17 17 18 19 21 22 22 23 24 24 24 24 25 26 27 27 27 28 29
18 17 18 18 19 19 19 19 19 19 18 18 18 17 17 17 17 17 17 16 16 16 17 18 19 19 20 21 22 23 23 23 24 24 25 25 26 26 26 27 28 29 29
19 20 20 20 21 21 20 20 20 20 20 20 19 19 19 19 19 18 19 19 19 19 19 20 21 21 21 21 22 23 23 24 25 25 25 26 26 26 26 27 28 30 30
21 22 22 22 22 22 22 21 21 21 21 21 21 20 20 20 20 21 20 21 21 21 21 22 22 22 22 22 23 24 25 25 25 26 26 27 28 28 28 29 30 31 31
24 24 24 23 23 23 23 23 22 23 23 22 21 21 22 22 22 22 21 21 22 22 23 23 24 24 24 24 24 25 26 26 26 26 27 28 29 29 30 31 31 31 31
24 25 25 24 24 24 24 24 24 24 24 23 23 22 22 23 23 23 23 22 22 22 23 24 25 25 25 25 26 26 27 27 27 27 27 28 29 29 30 31 31 31 32
26 26 26 26 26 26 26 26 26 25 25 25 24 24 24 24 24 24 24 23 23 23 24 25 25 25 26 26 27 27 28 28 28 28 28 30 31 32 32 32 32 32 32
27 27 27 28 28 28 27 27 26 26 26 26 26 26 26 25 25 25 25 25 24 24 25 26 26 27 27 27 28 28 28 28 29 29 30 32 32 33 33 32 32 33 33
28 29 29 29 29 28 27 28 27 28 27 27 27 26 26 25 25 25 26 26 25 25 26 26 27 28 29 30 30 30 30 30 31 31 32 33 33 34 34 34 34 34 34
28 29 29 30 29 29 29 29 29 29 29 29 29 28 26 26 27 27 27 27 27 27 28 28 29 30 31 32 32 32 32 33 33 33 33 33 34 34 34 34 34 34 33

GEFSMW_500_meanwind_186.txt.gz
Wind_Speed
18 18 18 18 17 16 15 15 14 12 10 8 5 3 2 3 4 3 4 4 4 5 4 5 6 5 5 4 4 5 4 4 4 3 3 3 4 4 4 5 5 5 6
17 17 18 17 18 17 16 15 14 13 11 8 6 4 2 3 3 4 4 4 5 5 5 6 6 6 6 6 6 6 6 6 5 5 5 5 5 6 6 7 7 7 8
17 18 18 18 18 18 17 16 15 13 11 9 7 6 4 3 3 4 4 5 5 6 6 6 7 8 8 8 8 8 8 8 8 7 7 7 7 8 8 8 9 9 10
17 18 18 18 18 18 17 16 15 13 11 9 7 6 5 4 4 4 4 4 5 5 6 7 7 8 9 9 9 10 10 9 9 9 9 10 10 10 10 11 11 12 11
17 18 18 18 18 17 17 16 15 13 12 9 8 7 6 5 5 5 5 6 6 6 6 7 8 9 9 10 10 11 11 11 11 11 11 11 12 12 12 12 13 13 13
17 18 18 18 17 17 16 16 15 13 12 10 9 8 7 6 5 5 5 6 7 7 7 8 9 9 10 10 11 11 11 12 12 12 13 13 13 14 14 14 15 15 15
17 18 18 18 18 17 17 16 15 14 12 10 10 8 9 7 6 6 6 6 7 7 8 9 9 9 10 11 11 11 12 12 13 14 14 15 16 16 16 16 16 17 17
17 17 17 18 18 18 17 16 15 14 13 12 11 10 10 8 7 7 7 7 8 8 9 9 9 10 10 11 11 12 13 13 14 15 16 16 16 17 18 18 18 18 19
15 16 17 18 18 18 18 18 16 15 14 13 12 12 11 8 7 7 8 7 8 9 9 9 9 10 10 11 12 12 13 14 15 16 16 17 17 18 18 19 19 20 20
15 16 17 18 18 18 18 18 17 16 15 14 13 12 10 9 8 8 8 8 9 10 10 10 11 11 12 12 13 13 14 15 16 16 17 17 17 18 19 19 19 20 21
15 16 16 18 18 19 19 19 18 17 16 15 14 12 10 9 9 9 10 10 11 11 11 11 12 13 13 14 15 15 15 15 16 16 16 17 18 18 19 19 20 21 22
15 16 17 18 18 19 20 19 18 18 17 16 15 14 12 11 11 11 11 12 12 12 13 13 13 14 14 15 15 16 17 17 17 17 17 18 18 19 20 20 21 22 22
15 15 17 18 18 19 19 19 19 18 18 17 17 15 14 13 12 12 13 13 13 13 14 14 15 15 15 16 16 17 17 18 18 18 19 19 19 20 21 22 22 23 24
16 17 18 19 19 19 19 19 20 19 19 18 18 17 16 15 14 13 13 14 15 15 15 15 16 16 16 16 17 17 18 18 19 19 20 21 21 22 22 23 23 24 25
17 17 18 18 19 19 20 20 20 19 19 19 18 18 17 16 16 15 15 15 16 16 16 16 17 17 17 17 17 18 19 19 20 21 21 22 23 23 24 24 25 26 26
18 17 18 19 19 20 20 20 20 20 20 20 20 19 19 18 17 17 17 17 18 18 18 19 18 18 18 18 19 19 20 21 22 23 23 24 25 25 25 26 27 27 28
19 18 19 19 20 21 21 21 21 21 21 22 21 20 20 20 19 18 18 19 19 20 20 20 19 19 20 20 20 20 21 22 23 23 24 24 25 26 26 27 28 28 29
20 20 20 20 21 22 22 22 23 23 22 22 22 22 21 21 21 21 20 20 20 21 21 21 21 21 21 21 21 22 22 23 24 24 24 24 26 26 27 27 28 28 30
22 22 22 23 23 23 24 24 24 24 24 24 24 23 23 23 22 23 22 21 21 22 22 22 22 22 23 23 23 23 24 24 24 25 25 26 26 27 28 28 29 30 30
23 24 24 25 25 24 25 26 26 25 25 25 25 25 25 24 24 24 23 23 22 23 23 23 23 23 24 24 25 26 25 25 26 26 27 27 27 28 29 30 30 31 31
25 25 26 26 27 26 26 27 27 27 27 27 27 27 26 26 25 25 24 24 25 25 25 25 24 25 25 25 26 27 27 27 27 28 28 29 29 29 30 31 32 32 32
26 26 26 27 27 27 27 27 27 28 29 29 28 28 27 27 27 26 26 26 26 25 26 26 26 26 25 26 26 27 28 28 28 29 30 30 31 31 32 32 33 33 34
28 27 27 27 27 28 28 29 29 30 30 29 29 28 28 28 27 27 27 27 27 26 26 26 26 27 27 27 27 28 30 30 30 31 31 31 32 32 33 33 34 34 34
29 28 28 28 29 29 30 29 30 30 30 29 29 29 28 28 28 28 28 28 27 27 27 28 28 28 28 28 29 29 30 30 31 31 32 32 32 32 32 33 34 34 34
30 30 30 30 30 30 30 30 31 31 30 29 29 29 29 29 30 29 29 29 28 28 29 29 29 30 30 30 30 30 31 32 32 32 33 33 33 33 34 34 34 35 35
31 31 31 31 30 30 30 31 31 30 30 30 30 30 30 30 30 29 30 30 30 30 30 30 31 31 31 31 31 31 32 32 33 33 33 33 33 34 35 35 35 36 35

GEFSMW_500_meanwind_192.txt.gz
Wind_Speed
20 19 18 18 17 17 16 14 14 12 11 9 6 5 3 1 1 2 2 2 2 2 3 5 5 5 5 5 5 6 6 6 6 5 5 6 6 5 6 6 6 6 7
19 19 18 17 17 17 16 15 14 13 11 10 8 5 4 2 2 3 3 3 3 3 3 5 6 6 6 6 7 7 7 7 7 7 7 7 7 8 8 8 8 9 9
18 18 17 16 16 16 16 15 13 12 11 10 8 7 5 4 2 2 3 3 4 4 4 5 6 7 7 8 8 8 8 9 9 9 9 9 10 10 10 10 10 10 11
17 17 17 16 15 16 15 15 13 13 12 10 9 7 6 5 3 3 4 4 4 5 5 5 6 7 8 8 9 10 10 10 11 11 11 11 11 11 12 12 13 13 13
16 16 16 16 15 15 15 14 13 13 12 11 10 8 7 6 4 4 4 4 4 5 6 6 7 7 8 9 9 10 11 11 12 12 12 13 13 13 14 14 15 14 15
15 14 15 15 15 15 15 14 13 13 12 11 10 8 7 6 5 4 4 4 5 6 7 7 8 9 9 10 11 11 11 11 12 13 13 14 14 14 14 15 15 15 16
14 14 14 16 16 15 15 14 14 13 13 12 10 9 8 6 6 5 5 5 6 8 8 8 9 10 11 11 11 11 12 12 13 13 14 14 14 14 15 16 17 17 17
14 15 15 15 15 15 15 15 15 14 13 13 12 10 8 7 6 6 6 6 7 8 9 9 10 10 11 11 12 12 12 13 13 14 14 14 14 15 16 18 18 18 19
14 15 14 15 15 15 15 16 15 14 14 13 12 11 9 7 7 7 7 6 7 7 8 10 10 10 11 11 12 13 13 14 14 14 14 15 16 17 17 18 18 18 19
13 14 14 15 15 15 15 16 16 15 14 13 13 12 11 10 8 8 8 7 8 8 8 9 9 10 11 11 12 13 14 14 14 15 15 15 16 17 17 18 18 18 19
13 14 14 15 15 15 16 16 15 15 15 14 14 14 13 12 10 9 9 9 9 9 9 10 10 10 10 11 12 12 14 14 15 15 16 16 16 16 17 17 17 18 18
13 13 14 15 15 15 16 16 16 15 15 15 15 14 13 12 12 11 10 11 12 11 11 11 11 11 11 12 12 13 14 15 15 16 17 17 18 18 18 18 18 19 20
13 13 14 14 15 16 15 15 15 16 16 16 15 15 14 14 13 12 12 12 12 12 12 12 12 12 12 13 13 14 15 16 16 17 17 18 18 18 18 19 20 20 21
14 14 14 15 16 16 16 16 16 16 16 17 17 16 15 15 14 14 13 13 13 13 13 13 13 13 13 14 15 15 16 17 17 18 18 19 20 20 20 21 21 22 23
14 14 15 15 16 17 17 17 17 17 17 18 18 17 17 17 16 15 15 14 14 14 14 14 14 14 15 15 15 16 16 17 18 18 19 19 20 21 21 22 23 24 24
15 15 16 16 16 17 17 17 17 17 18 19 19 19 19 18 18 17 16 16 16 16 16 15 16 15 15 16 16 16 16 17 18 19 19 20 21 22 22 23 24 25 25
17 16 17 17 17 18 18 18 19 19 19 20 20 20 20 20 19 19 18 18 18 17 17 17 17 17 17 17 17 17 18 18 18 20 21 22 22 23 23 24 24 25 26
18 18 19 19 19 20 20 21 21 21 21 20 21 20 21 21 21 20 20 20 19 19 18 18 19 19 18 18 18 18 19 19 19 20 21 22 23 24 24 25 26 26 26
20 21 21 20 20 21 21 22 23 23 23 22 22 22 22 22 22 22 21 20 20 20 20 20 20 20 19 19 20 20 20 20 21 21 22 23 24 24 25 26 27 27 27
22 22 22 22 21 21 22 23 24 24 24 24 24 24 24 24 24 23 22 22 22 22 22 21 21 20 21 21 21 21 21 22 22 23 24 24 24 25 26 27 28 28 28
23 23 24 23 23 23 24 25 25 25 26 26 26 26 25 26 25 24 24 23 23 23 23 23 22 22 22 22 22 23 23 23 23 24 24 26 26 27 28 29 29 29 30
24 24 25 24 25 25 25 26 26 27 27 27 27 26 26 26 25 25 25 24 24 24 24 23 23 24 23 23 23 24 25 25 25 25 26 27 27 28 29 30 30 30 31
26 26 26 26 26 26 27 27 27 27 27 27 26 26 26 26 25 25 25 25 24 24 24 24 25 25 25 25 25 25 25 26 26 26 27 27 28 28 29 30 30 31 31
26 26 27 27 28 27 28 28 28 28 27 27 27 26 27 26 26 26 26 26 26 26 26 26 26 26 25 25 26 26 27 27 27 28 28 29 29 29 30 30 31 32 32
26 27 27 28 29 29 28 29 29 29 28 28 28 28 27 27 27 26 26 27 27 27 27 27 27 26 26 26 27 27 27 28 28 29 29 29 30 30 31 31 31 32 33
28 28 28 28 29 29 29 30 30 29 29 28 28 28 27 27 27 27 27 28 28 28 27 27 26 27 27 27 28 28 28 28 29 29 29 30 31 31 31 32 32 33 33

GEFSMW_500_meanwind_198.txt.gz
Wind_Speed
18 17 17 16 15 15 14 12 11 10 9 7 6 4 3 1 1 1 2 3 3 3 3 4 5 6 6 6 6 6 7 7 8 8 8 7 7 7 8 8 8 9 9
18 17 17 16 15 15 14 13 12 10 9 8 7 5 3 2 2 2 3 4 4 4 5 5 6 6 6 7 7 8 8 9 9 9 9 9 10 10 9 10 11 11 11
17 16 16 15 15 14 14 14 13 11 10 8 7 6 5 3 2 2 3 4 4 5 5 6 6 6 7 7 8 9 10 11 11 11 11 11 11 12 12 13 13 13 13
15 16 15 15 14 14 14 13 13 12 10 9 8 7 5 5 3 3 3 3 4 5 5 6 7 7 8 8 9 10 11 11 12 13 13 13 13 14 14 15 15 15 16
14 15 14 14 14 14 14 13 13 12 11 10 9 8 7 6 5 5 4 5 5 6 7 8 9 9 10 10 11 12 12 12 12 13 14 14 15 15 16 16 16 17 18
14 14 13 13 14 14 14 14 14 13 12 12 11 9 7 7 6 6 6 6 6 7 8 9 9 10 11 11 11 12 13 13 14 15 15 15 16 16 17 17 17 18 19
13 13 13 13 14 14 14 14 14 14 13 12 12 11 9 8 7 7 7 7 7 8 9 10 10 11 12 12 12 12 13 14 15 16 15 16 16 16 17 18 18 19 19
11 11 12 12 13 13 14 15 14 14 13 13 12 12 11 9 8 7 7 8 8 9 9 11 12 12 13 14 14 14 14 15 16 16 17 17 17 18 18 18 18 19 20
10 11 11 11 12 13 14 14 15 14 14 13 13 12 12 10 9 8 8 8 8 9 10 11 12 12 13 14 14 15 16 16 16 17 18 19 19 19 19 19 19 19 19
10 11 11 11 12 13 13 14 14 14 14 14 13 13 13 12 10 10 9 9 10 10 11 12 12 13 13 14 15 15 16 16 17 18 18 19 19 19 20 20 21 20 21
11 11 11 11 12 13 13 14 15 14 14 14 14 14 14 13 11 11 11 11 11 11 11 12 12 13 13 14 15 15 15 16 16 17 18 19 20 20 21 21 21 21 21
12 12 12 12 13 13 13 14 15 14 14 15 15 15 15 14 14 12 12 12 12 12 12 13 13 13 14 14 15 16 17 17 18 18 19 20 21 21 21 22 22 22 22
12 12 12 12 13 13 13 14 15 14 15 15 16 15 15 15 15 15 14 13 13 14 14 14 14 14 15 15 16 17 17 17 18 19 20 20 21 22 22 22 23 23 24
11 12 13 13 14 14 15 16 15 15 16 16 16 16 17 17 17 17 16 15 15 15 15 15 15 15 16 16 17 18 18 19 19 20 20 20 20 21 22 23 24 25 25
13 13 14 15 15 15 16 16 16 16 17 17 17 18 18 19 19 19 18 18 17 17 17 17 17 17 17 17 19 19 19 19 20 20 21 21 21 21 22 23 25 26 27
14 15 15 16 16 16 16 17 17 18 18 18 19 20 20 21 20 21 20 19 19 18 18 18 18 18 18 19 20 20 20 20 20 21 22 22 22 22 22 23 25 26 27
15 16 17 17 17 17 17 18 19 19 20 20 21 21 22 22 22 23 21 20 20 19 19 19 19 19 19 20 20 20 20 20 20 20 21 22 22 23 23 24 25 26 28
18 19 19 19 19 19 19 19 20 20 21 21 21 22 23 23 23 23 22 21 21 21 20 21 21 21 21 21 21 21 22 21 21 22 23 23 24 24 25 26 27 27 28
21 20 21 21 20 20 20 20 20 21 22 21 22 23 24 24 24 24 23 22 22 21 21 22 22 22 23 23 23 23 23 23 23 23 23 24 25 26 26 27 28 29 29
22 22 22 22 21 21 21 21 21 22 22 23 24 24 25 25 25 25 25 24 23 22 22 23 23 23 23 24 24 24 24 25 25 24 25 25 26 26 27 28 28 29 29
24 24 24 23 22 22 22 22 22 23 24 25 25 25 26 26 26 26 25 24 24 23 23 23 23 24 24 25 25 25 26 26 26 26 26 27 27 28 28 28 29 29 30
25 25 24 24 24 24 23 23 24 25 26 26 26 26 26 26 26 26 25 25 25 24 24 24 24 24 25 25 26 26 26 26 26 27 27 27 27 28 28 29 29 30 30
25 26 26 27 27 26 25 25 25 26 27 27 27 26 26 26 26 26 25 25 24 24 24 25 25 25 25 26 26 27 27 27 26 26 27 27 27 28 29 29 30 30 31
27 28 28 28 27 26 25 26 26 27 27 26 26 26 26 27 26 25 25 25 25 25 25 26 26 26 26 26 26 27 27 26 26 26 26 27 28 29 30 30 30 31 32
28 28 28 28 29 27 26 26 27 28 27 27 26 27 28 28 27 26 25 25 26 26 26 26 26 27 26 26 27 27 28 27 27 27 27 28 29 30 30 31 32 32 33
29 29 28 29 29 29 27 26 27 28 28 28 28 28 29 28 28 27 27 26 27 27 28 28 27 27 28 28 28 28 28 28 28 28 29 30 30 30 31 31 32 33 33

GEFSMW_500_meanwind_204.txt.gz
Wind_Speed
16 16 15 14 12 11 11 10 10 9 8 7 6 5 4 2 1 1 2 2 2 3 3 4 5 5 6 6 6 7 7 7 7 7 8 8 9 9 9 10 10 10 10
15 15 14 13 12 12 11 11 11 10 9 8 6 5 4 3 2 2 3 3 3 4 4 5 6 6 6 7 7 8 8 9 9 9 10 11 11 11 12 12 11 11 12
13 13 13 12 12 12 11 11 10 10 10 9 7 6 5 4 4 3 3 3 4 4 4 5 6 6 7 7 8 9 9 10 10 11 11 12 12 13 13 14 13 13 14
12 12 12 11 11 11 11 11 10 10 10 10 9 7 6 6 5 5 5 5 5 5 5 6 7 7 8 8 9 10 10 11 12 13 13 13 14 14 14 15 15 15 15
11 11 11 10 11 11 11 11 11 10 9 9 10 9 8 7 6 6 6 6 6 6 7 8 8 8 9 9 10 11 12 13 13 14 14 14 15 16 16 16 17 17 18
11 10 10 10 11 11 11 11 11 11 11 10 11 11 10 9 8 8 8 8 6 7 8 9 9 9 10 11 12 13 14 14 14 15 15 16 16 18 18 18 18 18 18
9 9 10 10 10 11 11 11 11 11 11 11 12 12 12 11 10 9 9 8 6 7 8 9 10 10 11 12 13 14 15 15 15 16 16 17 17 18 19 19 19 19 20
9 9 9 10 10 11 11 11 10 11 12 12 12 12 11 12 11 10 10 8 7 8 9 10 10 11 12 13 14 15 15 16 16 17 18 18 19 19 19 20 20 20 21
8 8 9 10 10 11 11 11 11 11 12 12 12 13 12 12 11 10 10 9 9 9 9 10 11 12 12 13 14 15 15 16 17 18 19 19 19 20 21 21 21 22 22
9 9 10 10 11 11 10 10 11 12 12 12 13 13 13 12 12 12 11 10 10 10 10 11 11 12 12 13 13 15 16 16 17 17 18 19 19 20 21 22 22 23 24
9 10 10 10 11 10 10 10 11 12 12 12 13 13 13 13 13 13 12 12 12 12 12 12 13 14 14 14 15 15 16 16 17 18 18 18 19 19 20 21 21 23 23
10 11 11 11 11 11 10 11 12 12 12 12 13 14 14 14 14 14 14 14 14 14 14 13 14 14 15 15 15 16 17 17 17 18 19 19 19 20 20 21 22 22 23
11 11 12 12 11 12 12 12 13 13 13 14 14 14 14 14 15 15 15 16 16 15 15 15 14 15 15 16 16 16 17 18 18 18 18 19 19 20 21 22 22 23 23
13 12 12 13 13 13 14 14 14 15 15 15 15 15 15 15 16 16 16 16 16 16 15 15 15 15 15 16 17 17 18 18 18 19 19 20 21 21 22 23 23 23 23
14 14 14 15 15 15 16 16 16 16 16 16 16 16 16 17 17 17 16 16 16 17 17 16 16 16 17 17 17 18 18 19 20 20 20 20 21 22 22 23 23 23 24
16 16 16 17 16 16 17 17 17 17 17 17 17 17 17 18 18 18 17 17 18 18 18 19 19 19 19 19 18 19 19 19 20 21 21 21 22 22 23 23 24 24 25
17 17 17 17 17 17 18 18 18 18 17 18 18 18 18 18 18 18 19 19 19 20 20 20 20 20 20 20 20 20 20 21 21 21 22 22 23 23 23 24 25 25 26
18 18 18 18 19 19 19 20 21 21 19 19 19 19 19 19 20 20 20 20 21 21 22 22 21 21 20 20 20 20 21 21 22 23 23 23 24 24 24 25 26 26 26
20 20 20 19 19 20 21 22 23 24 23 22 20 20 21 21 22 22 22 22 22 23 23 22 22 22 21 21 21 22 22 22 23 24 24 24 24 25 25 26 26 27 28
22 22 22 21 21 22 22 23 23 23 23 21 21 22 22 23 23 24 24 24 24 24 23 23 23 23 22 22 23 23 23 24 24 24 25 24 25 25 26 25 25 26 27
24 24 24 24 23 23 24 24 24 24 23 23 23 24 25 25 25 25 25 25 25 24 24 24 24 23 22 23 23 24 24 25 25 25 25 25 25 25 26 26 26 27 27
26 26 25 25 25 25 25 25 25 25 25 25 24 25 26 27 27 26 26 25 25 24 25 24 24 24 24 24 24 25 25 25 25 25 25 25 25 25 25 26 26 27 27
27 27 27 27 26 26 26 26 25 25 26 26 26 26 26 27 26 26 26 25 25 25 25 25 25 25 25 25 25 26 26 26 26 26 25 25 25 26 26 26 27 27 28
29 29 28 27 27 27 26 26 26 26 27 27 27 26 26 26 26 27 27 25 25 26 26 26 25 25 25 25 26 26 26 26 27 26 26 26 26 27 27 27 27 27 28
31 31 30 29 27 27 25 26 27 27 28 27 27 26 26 26 26 26 26 26 25 26 26 26 25 25 25 25 26 26 26 26 26 27 27 27 27 27 27 27 28 28 29
32 31 29 28 28 27 27 27 28 28 28 27 27 27 27 27 27 27 27 26 26 26 26 25 25 25 25 26 26 26 27 27 27 27 27 27 27 27 27 28 29 29 30

GEFSMW_500_meanwind_210.txt.gz
Wind_Speed
17 17 17 17 16 15 12 12 12 11 11 10 9 8 6 6 5 4 3 4 4 4 5 5 5 5 5 6 6 7 7 7 7 8 8 9 10 10 10 10 10 11 11
16 16 16 16 15 14 13 12 11 11 10 10 10 9 8 7 6 6 5 5 5 6 6 6 6 5 6 7 7 7 7 8 9 9 10 10 11 12 12 12 13 13 13
15 15 15 15 14 13 13 13 12 11 11 11 11 10 9 8 8 7 7 6 6 7 7 7 6 7 7 8 8 9 9 10 10 11 11 12 13 13 13 13 14 14 14
14 14 14 14 13 13 13 13 12 11 11 11 11 11 10 9 8 9 8 8 8 8 8 8 8 8 9 9 10 10 11 11 11 12 12 13 14 14 14 14 15 15 16
14 13 13 13 13 13 13 13 12 12 11 11 12 11 10 10 10 10 9 8 9 9 9 9 9 10 10 10 11 12 12 13 13 13 14 15 16 16 16 16 16 17 18
12 13 12 12 13 13 13 13 13 13 12 12 13 12 12 11 11 11 11 10 10 10 10 10 11 11 11 11 12 13 13 14 14 15 15 15 16 17 17 18 18 18 19
11 11 12 12 12 13 13 13 13 13 13 13 14 13 13 12 12 12 12 11 12 11 11 11 11 11 12 12 13 14 14 14 15 15 15 16 17 18 18 18 19 19 20
10 11 11 11 12 12 13 13 14 13 14 14 15 14 13 13 12 13 13 13 13 13 12 12 12 12 13 13 14 14 14 15 16 16 17 17 18 18 19 19 20 21 21
9 10 11 12 12 12 12 12 13 13 14 14 15 15 14 14 13 13 13 13 13 13 13 14 14 14 14 14 14 14 14 15 16 17 17 18 19 19 18 19 19 20 20
9 10 11 12 12 13 13 13 13 13 14 15 15 15 15 15 15 15 15 14 14 14 15 14 14 14 13 13 13 14 14 15 16 17 18 19 19 19 19 19 19 19 20
10 10 11 12 12 13 13 13 13 13 14 15 15 16 16 16 16 16 16 16 16 16 16 15 15 15 15 15 15 15 15 16 17 17 18 19 19 19 19 19 19 20 20
12 12 12 13 13 13 13 13 12 13 14 15 15 16 16 17 17 17 17 17 17 17 17 17 16 16 16 16 17 17 17 17 17 18 18 19 19 20 20 19 20 20 21
14 14 14 14 14 14 14 14 14 14 15 16 16 16 17 17 18 18 18 18 18 18 18 17 17 17 17 18 18 19 18 18 19 19 19 19 20 20 20 21 21 21 21
15 15 15 15 15 15 15 16 17 16 17 17 17 18 18 19 19 20 20 20 19 19 19 19 18 19 19 19 20 20 20 19 19 20 21 21 21 21 22 22 22 22 22
17 17 16 16 17 17 16 17 18 18 18 18 18 19 19 20 21 21 22 21 20 20 20 20 20 20 20 20 21 21 20 20 20 21 21 22 22 22 22 23 22 22 22
19 19 18 18 18 18 18 19 20 20 20 19 19 20 20 21 22 22 22 22 22 21 22 21 21 21 22 22 21 21 20 21 21 22 22 23 23 23 22 22 23 23 23
21 20 20 20 20 20 20 21 21 21 21 21 21 20 20 21 22 22 22 23 23 23 23 23 23 23 23 23 23 23 22 22 23 23 23 23 23 22 22 22 23 23 22
23 22 22 22 21 22 22 23 22 22 22 22 23 23 22 22 22 23 23 24 24 24 24 24 24 23 23 24 24 23 23 23 23 24 23 23 24 24 23 23 22 22 23
25 24 24 24 23 23 23 24 23 22 23 23 23 23 23 23 23 24 24 24 25 25 25 25 24 24 23 24 24 23 23 23 23 23 23 23 24 24 24 23 23 24 24
25 25 25 26 25 25 25 25 24 24 24 25 24 25 25 25 25 25 25 26 26 26 25 25 25 24 24 23 24 24 24 23 24 24 24 24 25 25 25 24 25 25 25
26 26 27 27 27 27 27 26 26 25 25 26 26 26 26 26 26 27 26 27 26 26 25 25 25 24 24 23 23 24 24 24 25 25 25 24 25 25 25 25 25 26 26
28 28 28 28 28 29 28 28 27 26 27 27 27 27 27 27 28 28 27 27 26 26 25 25 25 25 25 24 24 25 25 26 26 25 25 25 25 25 26 26 26 27 27
30 29 29 29 29 29 29 29 28 29 29 29 29 29 28 29 29 28 27 27 27 27 26 26 26 25 25 25 26 26 26 27 26 26 26 26 26 26 27 27 27 27 27
31 31 31 31 30 30 30 31 31 30 30 30 30 30 30 30 29 29 28 27 27 27 26 27 26 26 25 26 27 27 27 27 27 26 26 26 26 27 27 27 28 28 28
32 33 33 33 32 32 31 31 31 31 31 32 31 31 31 30 30 29 29 29 28 28 28 28 27 27 26 26 26 26 26 27 27 27 27 27 27 28 28 28 28 28 28
32 33 34 34 33 33 32 32 32 32 31 31 31 31 30 30 30 30 30 30 29 29 28 28 28 28 28 27 27 27 27 27 27 27 27 28 27 28 28 29 29 29 30

GEFSMW_500_meanwind_216.txt.gz
Wind_Speed
17 17 16 15 15 14 14 13 12 12 11 10 9 8 7 5 4 3 3 3 3 2 2 2 2 3 3 4 5 5 6 6 7 8 8 9 9 9 10 11 12 12 12
16 15 15 15 15 14 13 13 12 11 11 10 9 8 7 6 5 5 4 5 4 3 3 4 4 4 5 5 6 7 7 7 8 8 9 10 10 11 11 11 12 13 13
14 13 14 14 14 14 13 13 12 11 10 9 9 8 8 7 6 5 5 5 5 4 4 5 5 6 7 7 8 8 9 9 10 10 11 11 12 13 13 13 14 15 15
13 12 12 12 13 13 13 13 12 12 11 10 9 9 8 8 7 7 6 6 6 5 5 5 6 7 8 8 9 9 10 11 11 12 13 14 14 15 15 16 16 16 17
12 11 10 10 11 12 13 12 12 12 11 10 10 10 9 8 8 8 8 8 7 6 6 6 6 7 8 8 9 10 11 12 12 12 13 14 15 16 17 17 17 18 18
10 10 10 10 11 11 11 11 11 11 11 11 10 10 10 9 9 9 9 9 9 8 7 7 7 8 8 9 10 11 11 11 12 13 13 14 14 15 16 17 18 19 19
8 8 8 9 10 11 11 11 10 11 11 10 11 10 10 10 10 9 10 10 10 9 9 8 8 8 8 9 10 11 11 12 12 13 13 13 14 15 15 16 17 18 19
7 6 7 8 9 10 11 11 11 12 11 11 11 11 11 11 11 11 11 11 10 10 10 9 9 9 9 10 10 10 11 12 13 14 14 14 14 15 15 16 17 17 18
7 6 7 8 9 10 10 11 11 11 11 10 10 10 10 11 11 11 12 11 11 11 10 10 10 10 9 10 10 11 12 12 13 13 13 14 14 15 15 16 16 17 18
6 7 6 7 9 9 10 11 11 11 10 10 10 10 11 11 11 11 11 12 12 12 11 11 11 11 11 11 11 11 12 13 13 13 14 14 15 15 16 16 16 17 18
8 8 7 7 9 10 11 11 11 11 11 11 11 11 12 12 12 11 12 12 13 13 12 12 13 12 12 12 12 12 13 13 13 14 14 15 16 16 16 16 17 17 18
8 8 8 8 9 10 11 12 12 12 13 13 14 14 13 13 13 13 13 13 14 14 14 14 14 14 13 13 13 13 13 14 15 15 15 16 16 16 16 17 17 18 18
11 8 8 9 9 11 12 13 13 13 14 14 15 15 15 15 16 15 14 14 14 14 15 14 15 15 15 14 14 14 14 15 15 16 16 17 17 17 18 18 18 18 19
12 10 9 10 11 12 13 14 14 15 15 15 16 16 16 16 15 15 15 15 15 15 15 15 15 15 15 15 15 15 15 15 16 17 17 17 18 19 19 19 19 19 19
13 12 11 12 13 13 14 15 15 16 16 17 17 17 18 17 16 16 16 16 16 16 16 16 17 16 16 17 16 15 15 16 17 17 17 18 18 19 19 19 20 20 21
16 16 16 15 14 15 15 16 17 17 18 18 18 18 19 18 17 16 17 18 18 18 17 18 18 18 18 18 17 17 17 17 17 18 18 18 18 18 19 19 19 19 19
20 20 19 18 17 17 17 18 18 19 19 19 19 19 19 18 17 17 18 19 19 19 19 19 19 19 19 18 18 18 18 18 18 19 18 18 19 19 19 20 20 19 19
21 21 21 21 19 19 19 19 20 21 20 21 21 21 21 20 19 19 19 20 20 20 20 20 21 21 20 20 19 19 19 19 19 19 19 19 19 19 20 20 20 19 19
22 22 22 22 22 21 21 21 21 22 22 22 21 21 21 21 20 20 21 20 21 21 20 21 20 20 20 20 19 19 19 19 19 19 19 19 20 20 20 20 20 20 20
25 25 25 24 23 22 23 23 23 22 22 21 21 21 21 21 21 21 21 21 22 22 21 21 21 20 20 20 20 20 20 20 20 20 20 20 20 20 20 20 20 20 20
27 26 25 24 23 23 24 24 23 23 23 23 23 23 22 22 22 22 22 22 23 24 23 23 22 22 22 21 21 21 21 21 21 21 21 20 20 20 21 20 20 21 22
26 26 26 25 24 25 25 24 24 24 24 25 24 24 24 24 24 24 25 25 25 25 25 24 24 23 23 22 22 22 22 22 21 21 21 21 21 21 21 22 22 22 23
26 26 27 26 25 25 25 25 25 26 26 26 26 25 26 26 27 26 26 27 26 26 26 25 24 24 23 23 23 24 24 23 23 22 22 22 23 23 22 22 23 23 23
27 27 26 26 26 26 26 26 26 27 27 28 27 26 27 27 28 28 28 28 27 26 26 25 25 25 24 25 25 25 25 25 24 24 24 23 23 23 23 23 23 23 23
31 29 29 29 29 28 28 28 29 29 29 29 30 28 28 28 29 29 28 28 27 26 25 25 25 25 25 26 26 26 25 25 24 25 25 23 23 23 23 23 24 24 25
33 32 30 30 30 30 30 30 30 30 30 30 31 31 29 29 29 28 28 28 28 27 27 26 26 26 26 26 26 26 26 25 25 25 24 23 23 24 24 24 25 25 26

GEFSMW_500_meanwind_222.txt.gz
Wind_Speed
14 15 15 14 13 12 11 11 10 9 8 8 7 6 5 4 4 3 3 4 4 3 4 4 4 4 4 5 7 7 8 8 9 9 9 9 9 10 10 11 11 12 13
12 13 13 13 13 12 11 10 9 9 9 8 7 6 5 5 4 4 4 4 5 5 5 5 5 6 6 6 7 8 9 10 10 10 10 11 11 12 12 13 13 14 14
9 11 12 12 12 12 11 10 9 9 9 8 7 7 7 7 5 4 4 5 5 5 6 6 6 7 7 7 8 8 9 11 12 12 12 12 12 13 14 14 15 15 16
8 8 9 10 11 11 11 10 10 10 10 9 9 8 7 7 6 6 6 6 6 6 6 7 7 8 8 8 9 9 10 11 12 13 13 13 14 14 15 15 16 16 16
6 6 7 8 9 9 10 10 10 9 9 9 9 9 8 8 8 7 7 8 8 7 7 7 8 8 8 8 9 9 10 11 12 13 13 13 14 15 16 16 17 16 17
6 6 6 6 6 7 8 9 9 9 9 9 9 9 9 9 9 9 9 8 8 8 7 7 8 8 8 9 10 10 11 11 12 13 14 14 14 14 15 16 16 17 18
6 6 6 5 6 6 7 8 8 8 9 9 9 9 9 9 9 9 9 9 9 9 9 8 8 9 9 9 10 10 11 12 12 13 14 14 14 14 15 16 17 18 19
7 7 7 6 5 6 7 8 8 8 8 8 8 9 10 10 10 10 10 10 10 10 10 9 10 10 10 10 10 10 11 12 13 13 13 14 15 15 16 16 17 18 19
8 7 7 7 6 6 7 7 8 9 9 9 9 9 10 10 10 10 10 11 11 11 10 10 11 11 11 11 11 11 11 12 12 13 13 14 15 15 16 16 17 18 18
8 8 8 7 6 6 6 7 8 9 10 9 10 10 10 11 11 11 12 12 12 12 11 11 12 11 12 12 11 11 12 13 13 14 14 14 15 16 17 17 18 18 19
9 9 9 9 8 7 7 7 8 10 11 10 10 11 11 12 12 13 13 13 13 12 12 12 12 12 12 12 12 13 13 14 14 15 15 16 17 17 18 19 19 19 20
11 11 10 10 9 9 8 8 9 10 11 11 11 12 12 13 14 14 14 14 13 12 11 12 13 13 13 13 13 14 14 15 15 16 16 17 18 18 19 19 19 20 20
12 13 12 12 11 11 10 10 11 12 12 12 13 13 13 14 14 15 15 15 14 13 13 13 13 14 14 14 14 14 15 15 16 17 17 18 18 19 19 19 19 19 20
14 14 14 14 13 13 13 13 13 14 15 14 14 15 15 15 15 16 16 16 15 15 14 14 14 15 15 15 16 16 16 16 17 18 19 19 19 19 20 20 20 20 21
16 16 16 16 16 15 15 15 15 16 16 16 16 17 17 17 16 16 16 16 15 15 15 15 15 16 16 17 17 17 17 18 18 19 20 20 20 20 20 20 20 21 21
18 17 17 18 19 18 17 17 17 17 17 18 18 19 19 19 17 17 17 16 16 16 15 16 16 16 17 18 18 19 19 18 19 19 20 20 20 20 20 20 20 21 22
17 19 19 20 20 20 19 19 19 19 19 20 20 20 21 20 18 18 17 16 16 16 17 17 17 17 18 18 19 19 20 20 20 20 20 20 20 20 20 20 21 21 21
21 21 21 22 22 21 21 21 20 21 21 21 22 22 21 20 19 19 18 18 18 18 18 18 18 18 18 19 19 19 19 20 21 21 21 21 21 21 21 21 22 22 22
23 23 23 24 24 23 23 23 22 22 22 22 23 22 22 22 21 21 20 20 19 19 19 19 20 20 20 20 20 20 21 21 21 21 21 22 22 22 22 23 22 22 22
24 26 25 24 24 24 25 25 24 23 24 23 23 23 23 23 23 22 21 20 21 21 21 21 21 21 21 21 21 22 23 22 22 22 22 23 23 23 23 23 23 23 23
25 26 26 26 25 26 26 26 25 25 25 25 25 26 25 23 24 23 22 22 22 22 22 23 23 22 22 22 23 24 24 24 23 23 24 24 24 24 24 24 24 24 24
27 27 27 27 27 27 27 27 27 27 27 27 27 27 26 25 25 24 23 23 23 24 24 24 23 24 23 23 24 24 25 26 26 26 25 25 25 25 25 25 24 24 24
28 28 28 28 28 28 28 28 28 28 28 27 27 27 27 27 27 25 25 25 25 25 26 25 25 25 25 25 25 25 26 27 27 27 26 26 25 25 25 25 25 24 25
29 29 29 29 29 30 30 30 29 28 28 28 27 27 27 27 28 28 27 27 27 27 27 27 26 26 26 26 26 26 25 25 26 26 26 26 26 26 26 26 27 26 26
31 31 31 30 31 31 30 30 30 30 30 29 29 29 29 29 30 30 29 29 29 29 28 28 28 28 28 27 27 27 26 25 25 25 25 25 26 26 26 26 26 26 26
31 31 31 32 32 32 31 31 31 32 31 31 30 30 31 32 31 30 30 30 30 30 29 29 29 29 29 28 28 27 26 26 26 25 25 25 25 25 25 26 25 25 25

GEFSMW_500_meanwind_228.txt.gz
Wind_Speed
12 12 12 11 10 9 9 8 8 7 6 6 6 6 5 4 3 2 2 2 2 3 3 4 4 5 6 7 7 7 7 8 8 9 9 9 10 10 11 12 12 12 12
10 10 11 11 10 9 9 8 8 7 6 6 6 6 6 5 4 3 3 3 3 4 4 4 5 5 6 6 7 8 8 8 8 9 9 9 10 12 12 13 13 14 14
9 9 10 10 10 9 9 8 8 7 7 7 6 6 6 6 5 4 5 5 5 4 5 5 5 5 6 6 7 8 9 9 10 10 10 10 11 11 12 13 14 15 15
8 8 9 9 8 8 8 8 7 7 6 6 6 6 6 6 6 6 6 6 6 5 5 5 5 6 6 6 7 7 8 9 10 11 11 12 12 12 13 14 15 15 16
7 8 8 9 8 8 8 8 7 7 6 6 6 7 7 7 7 7 8 8 7 7 7 7 7 7 7 7 8 8 9 9 10 10 11 11 12 13 13 14 15 16 17
7 8 8 8 8 8 8 8 8 7 7 6 7 7 7 8 8 8 8 9 9 9 8 8 8 8 8 8 8 9 10 11 11 11 11 11 12 12 13 14 15 16 17
7 7 8 9 9 8 8 8 7 7 7 7 7 8 8 8 8 9 9 10 10 10 10 10 9 9 9 9 10 10 10 11 12 12 12 13 13 14 14 14 15 16 16
7 8 8 9 9 9 8 8 7 7 7 8 8 8 9 9 9 9 10 11 11 11 11 11 11 10 10 11 11 11 11 11 12 13 13 13 14 14 15 16 16 17 17
8 9 9 9 10 10 9 9 8 8 8 8 9 9 9 10 10 10 11 12 12 12 12 12 12 11 11 11 11 12 12 12 12 13 14 15 15 15 16 16 17 18 19
9 9 9 9 10 10 10 9 9 9 9 9 10 10 10 11 11 11 12 13 13 13 13 14 13 13 13 12 12 13 13 13 13 14 14 15 16 16 17 18 18 19 20
10 10 10 10 11 11 10 10 9 9 9 10 11 11 11 12 12 13 14 14 14 14 14 14 14 13 13 13 13 14 14 14 15 15 15 16 17 18 18 19 19 19 20
12 12 12 12 12 11 11 11 11 11 11 12 12 12 13 13 14 14 15 15 15 15 14 14 14 14 14 14 14 14 15 15 16 16 17 17 18 18 18 18 19 19 20
13 13 13 13 12 12 12 12 12 12 13 14 14 14 14 15 15 16 16 16 16 15 14 14 14 14 15 15 15 16 16 17 17 17 18 18 18 18 18 19 20 20 20
14 14 13 13 13 13 13 13 13 14 15 15 16 16 16 16 17 17 17 17 17 17 16 16 15 15 16 16 17 17 18 18 18 18 19 19 19 19 20 20 20 21 21
14 15 15 15 16 16 15 15 15 15 16 17 17 17 17 17 18 18 18 17 18 18 19 18 17 17 17 18 18 18 18 19 19 20 20 20 20 20 20 21 21 21 21
16 16 16 17 18 18 18 17 17 17 17 17 17 18 18 18 18 19 20 19 19 20 18 18 18 18 19 19 19 19 19 20 20 20 20 20 20 21 21 21 22 22 22
18 18 18 18 18 19 19 20 19 19 19 19 19 19 20 20 20 20 20 20 20 20 19 19 19 20 20 20 20 20 20 21 21 21 21 21 21 21 21 21 21 21 21
20 20 20 20 20 21 22 21 22 21 21 21 21 21 22 22 22 22 21 22 22 21 21 21 21 21 21 20 20 20 20 20 21 21 21 21 22 23 23 22 22 22 21
22 22 22 22 22 22 23 24 23 23 23 23 23 23 24 24 24 23 23 23 23 23 22 22 22 23 23 22 22 21 22 22 22 22 23 23 23 23 23 23 23 23 23
23 24 24 25 25 25 25 25 25 25 24 24 24 25 25 25 25 25 25 25 24 24 23 23 22 22 23 23 23 23 24 24 24 24 25 25 25 25 25 25 24 23 23
26 26 26 27 27 26 26 26 26 26 25 25 26 25 25 26 26 27 26 26 26 25 24 24 24 24 24 24 24 25 26 26 26 26 27 26 26 26 26 25 25 25 24
27 27 27 27 27 27 27 27 27 26 26 27 28 27 27 28 28 29 28 27 26 26 25 25 25 25 26 26 26 26 27 27 28 28 28 28 28 28 27 26 26 26 25
29 29 29 28 28 28 28 28 27 26 27 28 28 28 29 30 30 30 29 28 27 26 26 25 26 26 27 27 27 27 27 28 28 28 28 28 28 28 28 28 27 26 26
31 30 30 30 30 30 30 28 28 29 29 29 29 30 30 30 31 31 31 30 29 27 27 27 28 28 28 28 28 28 28 29 29 29 29 29 29 29 28 27 27 26 26
32 32 32 31 31 31 31 30 30 30 30 29 29 30 30 31 31 32 31 31 31 30 29 29 29 30 30 30 30 30 30 30 30 30 30 29 29 29 29 28 28 27 27
32 32 32 32 32 32 32 32 32 31 31 31 31 30 31 32 32 32 32 32 31 30 30 30 31 31 31 31 31 31 31 31 31 31 31 30 29 29 28 28 27 26 26

GEFSMW_500_meanwind_234.txt.gz
Wind_Speed
13 13 13 13 12 12 12 11 10 9 9 8 9 8 7 6 6 5 6 6 6 6 6 7 7 7 6 6 6 7 7 8 7 8 8 8 9 10 11 11 12 12 12
11 12 13 13 12 12 12 12 11 9 9 8 8 8 8 7 7 7 6 6 6 6 7 7 8 7 7 7 7 7 8 8 8 8 8 9 9 10 11 12 12 12 12
10 11 11 12 12 12 12 11 11 10 9 9 9 9 8 8 8 8 8 7 7 7 7 8 9 8 8 8 8 8 8 9 9 9 9 9 10 10 11 11 11 12 12
9 10 10 11 11 11 11 11 11 11 10 10 9 9 9 9 9 8 8 8 8 8 8 9 9 9 9 9 9 9 9 9 9 9 10 10 10 10 11 11 12 12 12
8 9 10 10 11 11 11 11 11 10 10 10 10 9 9 9 10 10 9 9 9 9 9 10 10 10 10 10 11 10 10 10 11 11 11 12 12 12 12 12 12 12 13
9 9 10 10 11 11 10 10 11 11 10 10 10 10 10 10 10 10 10 10 9 9 10 11 11 11 11 11 12 12 11 11 11 12 13 13 13 13 13 13 12 13 14
9 9 10 11 11 11 10 10 11 11 11 11 10 11 11 11 11 10 10 11 11 11 12 12 13 13 13 12 12 12 12 12 12 13 13 14 14 14 14 14 14 14 15
10 10 10 11 11 11 10 10 11 11 12 11 11 11 12 12 11 11 11 12 12 13 14 14 14 14 13 13 13 12 13 13 13 13 14 14 15 15 15 15 15 15 16
11 11 11 11 11 11 10 9 11 11 12 11 12 12 13 12 12 12 12 13 13 14 14 15 15 15 14 14 14 14 14 14 14 14 15 15 15 15 16 16 16 16 17
12 12 11 12 12 12 12 11 11 11 12 12 12 13 13 13 13 13 13 13 14 14 15 16 16 16 16 15 15 15 15 15 15 15 15 16 16 16 16 16 17 17 18
13 12 12 13 13 13 13 13 13 13 13 13 13 14 14 13 14 14 14 14 15 15 16 17 17 17 17 16 16 16 16 16 17 16 17 17 17 17 18 18 18 18 19
14 14 14 14 14 14 13 13 14 14 14 14 15 15 14 15 15 15 15 15 16 16 17 17 18 18 18 17 17 17 18 18 18 18 18 18 18 18 19 19 19 19 19
15 16 15 15 15 15 15 15 15 15 16 15 15 16 16 16 15 15 15 16 16 17 17 18 19 19 19 19 18 19 19 19 19 19 19 19 19 19 19 19 20 19 19
15 16 17 16 16 17 17 17 17 17 17 17 17 17 17 16 16 16 17 17 18 18 19 19 19 20 20 19 20 20 20 19 19 19 19 19 19 19 19 20 20 20 21
17 18 18 18 18 19 19 18 18 19 19 19 19 19 19 18 18 18 18 19 19 20 20 21 21 22 22 21 21 21 20 20 20 20 20 20 20 20 20 21 21 21 22
19 19 19 20 20 20 20 20 20 20 21 20 21 21 21 20 19 19 20 21 21 22 22 22 22 22 22 22 22 21 21 21 21 21 21 21 21 20 20 21 21 22 22
21 21 21 22 22 22 22 22 22 22 22 22 22 22 22 22 22 21 22 22 23 23 24 24 24 24 23 23 22 22 22 22 22 22 22 21 21 21 21 21 21 22 22
23 23 23 23 23 23 24 24 24 24 24 24 24 24 24 24 23 23 23 23 24 25 25 25 25 24 24 24 24 25 25 25 24 24 24 24 23 22 22 22 23 23 23
24 24 25 25 25 25 26 25 25 25 25 25 25 25 24 25 25 25 25 25 25 25 25 25 25 25 26 26 26 26 25 25 25 26 26 25 25 25 25 24 24 24 24
26 26 26 26 26 27 27 26 26 26 26 26 26 26 26 26 25 25 25 25 26 25 26 26 26 27 27 26 26 26 26 26 26 27 27 26 27 27 27 27 26 26 25
29 28 27 27 27 28 28 27 27 27 27 28 27 27 26 26 26 27 27 27 27 27 27 27 27 28 28 28 27 26 26 26 26 26 26 26 27 27 28 28 28 28 27
30 30 29 29 29 29 29 28 28 28 29 29 29 28 28 28 28 28 28 29 29 29 29 29 29 29 29 29 28 27 26 26 27 27 27 27 27 28 28 28 29 29 29
32 31 31 31 30 30 30 30 30 30 31 31 31 30 30 30 30 30 30 30 29 29 29 29 29 29 29 30 29 28 28 28 28 28 28 28 29 29 29 29 29 29 29
33 33 33 33 32 32 31 32 32 32 32 33 34 33 32 31 31 30 30 30 30 30 30 30 30 30 29 30 29 29 28 29 29 29 29 29 29 29 30 30 30 30 29
35 35 35 35 34 33 33 33 33 33 33 34 35 34 32 32 31 32 32 32 32 31 31 31 30 30 29 28 30 30 30 30 30 30 30 30 30 31 31 31 30 30 29
35 36 36 36 36 35 35 34 34 33 34 34 34 34 34 34 34 33 33 33 33 32 32 32 31 31 31 31 31 31 31 31 31 31 31 31 31 31 31 31 30 29 29